Time,TemperatureF,DewpointF,PressureIn,WindDirection,WindDirectionDegrees,WindSpeedMPH,WindSpeedGustMPH,Humidity,HourlyPrecipIn,Conditions,Clouds,dailyrainin,SoftwareType,DateUTC
2013-03-13 00:00:00,69.1,65.7,29.97,WNW,287,0.0,0.0,89,0.00,,,0.02,Wunderground v.1.15,2013-03-13 04:00:00,
2013-03-13 00:02:00,69.0,65.6,29.97,WNW,286,0.0,0.0,89,0.00,,,0.02,Wunderground v.1.15,2013-03-13 04:02:00,
2013-03-13 00:03:00,69.0,65.6,29.97,WNW,287,0.0,0.0,89,0.00,,,0.02,Wunderground v.1.15,2013-03-13 04:03:00,
2013-03-13 00:06:00,69.0,65.6,29.98,WNW,289,0.0,0.0,89,0.00,,,0.02,Wunderground v.1.15,2013-03-13 04:06:00,
2013-03-13 00:09:00,68.9,65.5,29.98,WNW,289,0.0,0.0,89,0.00,,,0.02,Wunderground v.1.15,2013-03-13 04:09:00,
2013-03-13 00:11:00,68.9,65.5,29.97,WNW,289,0.0,0.0,89,0.00,,,0.02,Wunderground v.1.15,2013-03-13 04:11:00,
2013-03-13 00:13:00,68.9,65.5,29.97,WNW,289,0.0,0.0,89,0.00,,,0.02,Wunderground v.1.15,2013-03-13 04:13:00,
2013-03-13 00:15:00,68.9,65.5,29.97,WNW,289,0.0,0.0,89,0.00,,,0.02,Wunderground v.1.15,2013-03-13 04:15:00,
2013-03-13 00:16:00,68.8,65.4,29.97,WNW,289,0.0,0.0,89,0.00,,,0.02,Wunderground v.1.15,2013-03-13 04:16:00,
2013-03-13 00:18:00,68.8,65.4,29.97,WNW,289,0.0,0.0,89,0.00,,,0.02,Wunderground v.1.15,2013-03-13 04:18:00,
2013-03-13 00:21:00,68.8,65.4,29.97,WNW,289,0.0,0.0,89,0.00,,,0.02,Wunderground v.1.15,2013-03-13 04:21:00,
2013-03-13 00:22:00,68.8,65.4,29.97,WNW,289,0.0,0.0,89,0.00,,,0.02,Wunderground v.1.15,2013-03-13 04:22:00,
2013-03-13 00:23:00,68.9,65.5,29.97,WNW,289,0.0,0.0,89,0.00,,,0.02,Wunderground v.1.15,2013-03-13 04:23:00,
2013-03-13 00:26:00,68.9,65.5,29.97,WNW,289,0.0,0.0,89,0.00,,,0.02,Wunderground v.1.15,2013-03-13 04:26:00,
2013-03-13 00:28:00,68.8,65.4,29.97,WNW,289,0.0,0.0,89,0.00,,,0.02,Wunderground v.1.15,2013-03-13 04:28:00,
2013-03-13 00:29:00,68.8,65.4,29.97,WNW,289,0.0,0.0,89,0.00,,,0.02,Wunderground v.1.15,2013-03-13 04:29:00,
2013-03-13 00:32:00,68.8,65.4,29.97,WNW,289,0.0,0.0,89,0.00,,,0.02,Wunderground v.1.15,2013-03-13 04:32:00,
2013-03-13 00:35:00,68.8,65.4,29.97,WNW,289,0.0,0.0,89,0.00,,,0.02,Wunderground v.1.15,2013-03-13 04:35:00,
2013-03-13 00:37:00,68.8,65.4,29.97,WNW,289,0.0,0.0,89,0.00,,,0.02,Wunderground v.1.15,2013-03-13 04:37:00,
2013-03-13 00:39:00,68.9,65.5,29.97,WNW,289,0.0,0.0,89,0.00,,,0.02,Wunderground v.1.15,2013-03-13 04:39:00,
2013-03-13 00:40:00,68.9,65.5,29.97,WNW,289,0.0,0.0,89,0.00,,,0.02,Wunderground v.1.15,2013-03-13 04:40:00,
2013-03-13 00:42:00,68.9,65.5,29.97,WNW,289,0.0,0.0,89,0.00,,,0.02,Wunderground v.1.15,2013-03-13 04:42:00,
2013-03-13 00:43:00,68.9,65.5,29.97,WNW,289,0.0,0.0,89,0.00,,,0.02,Wunderground v.1.15,2013-03-13 04:43:00,
2013-03-13 00:48:00,68.9,65.5,29.97,WNW,289,0.0,0.0,89,0.00,,,0.02,Wunderground v.1.15,2013-03-13 04:48:00,
2013-03-13 00:49:00,68.8,65.4,29.97,WNW,289,0.0,0.0,89,0.00,,,0.02,Wunderground v.1.15,2013-03-13 04:49:00,
2013-03-13 00:50:00,68.8,65.4,29.97,WNW,289,0.0,0.0,89,0.00,,,0.02,Wunderground v.1.15,2013-03-13 04:50:00,
2013-03-13 00:51:00,68.8,65.4,29.97,WNW,289,0.0,0.0,89,0.00,,,0.02,Wunderground v.1.15,2013-03-13 04:51:00,
2013-03-13 00:55:00,68.8,65.4,29.97,WNW,289,0.0,0.0,89,0.00,,,0.02,Wunderground v.1.15,2013-03-13 04:55:00,
2013-03-13 00:56:00,68.8,65.4,29.97,WNW,289,0.0,0.0,89,0.00,,,0.02,Wunderground v.1.15,2013-03-13 04:56:00,
2013-03-13 00:57:00,68.8,65.4,29.97,WNW,289,0.0,0.0,89,0.00,,,0.02,Wunderground v.1.15,2013-03-13 04:57:00,
2013-03-13 01:00:00,68.8,65.4,29.97,WNW,289,0.0,0.0,89,0.00,,,0.02,Wunderground v.1.15,2013-03-13 05:00:00,
2013-03-13 01:01:00,68.8,65.7,29.97,WNW,289,0.0,0.0,90,0.00,,,0.02,Wunderground v.1.15,2013-03-13 05:01:00,
2013-03-13 01:04:00,68.8,65.7,29.97,WNW,289,0.0,0.0,90,0.00,,,0.02,Wunderground v.1.15,2013-03-13 05:04:00,
2013-03-13 01:05:00,68.8,65.7,29.97,WNW,289,0.0,0.0,90,0.00,,,0.02,Wunderground v.1.15,2013-03-13 05:05:00,
2013-03-13 01:07:00,68.8,65.7,29.97,WNW,289,0.0,0.0,90,0.00,,,0.02,Wunderground v.1.15,2013-03-13 05:07:00,
2013-03-13 01:09:00,68.8,65.4,29.97,WNW,289,0.0,0.0,89,0.00,,,0.02,Wunderground v.1.15,2013-03-13 05:09:00,
2013-03-13 01:10:00,68.8,65.7,29.97,WNW,289,0.0,0.0,90,0.00,,,0.02,Wunderground v.1.15,2013-03-13 05:10:00,
2013-03-13 01:14:00,68.8,65.7,29.97,WNW,289,0.0,0.0,90,0.00,,,0.02,Wunderground v.1.15,2013-03-13 05:14:00,
2013-03-13 01:16:00,68.8,65.7,29.97,WNW,289,0.0,0.0,90,0.00,,,0.02,Wunderground v.1.15,2013-03-13 05:16:00,
2013-03-13 01:17:00,68.8,65.7,29.97,WNW,289,0.0,0.0,90,0.00,,,0.02,Wunderground v.1.15,2013-03-13 05:17:00,
2013-03-13 01:19:00,68.8,65.7,29.97,WNW,289,0.0,0.0,90,0.00,,,0.02,Wunderground v.1.15,2013-03-13 05:19:00,
2013-03-13 01:22:00,68.8,65.7,29.97,WNW,289,0.0,0.0,90,0.00,,,0.02,Wunderground v.1.15,2013-03-13 05:22:00,
2013-03-13 01:24:00,68.8,65.7,29.96,WNW,289,0.0,0.0,90,0.00,,,0.00,Wunderground v.1.15,2013-03-13 05:24:00,
2013-03-13 01:25:00,68.8,65.7,29.97,WNW,289,0.0,0.0,90,0.00,,,0.00,Wunderground v.1.15,2013-03-13 05:25:00,
2013-03-13 01:26:00,68.8,65.7,29.96,WNW,289,0.0,0.0,90,0.00,,,0.00,Wunderground v.1.15,2013-03-13 05:26:00,
2013-03-13 01:30:00,68.7,65.6,29.96,WNW,289,0.0,0.0,90,0.00,,,0.00,Wunderground v.1.15,2013-03-13 05:30:00,
2013-03-13 01:31:00,68.8,65.7,29.97,WNW,289,0.0,0.0,90,0.00,,,0.00,Wunderground v.1.15,2013-03-13 05:31:00,
2013-03-13 01:32:00,68.7,65.6,29.96,WNW,289,0.0,0.0,90,0.00,,,0.00,Wunderground v.1.15,2013-03-13 05:32:00,
2013-03-13 01:37:00,68.7,65.6,29.97,WNW,289,0.0,0.0,90,0.00,,,0.00,Wunderground v.1.15,2013-03-13 05:37:00,
2013-03-13 01:38:00,68.7,65.6,29.97,WNW,289,0.0,0.0,90,0.00,,,0.00,Wunderground v.1.15,2013-03-13 05:38:00,
2013-03-13 01:42:00,68.6,65.5,29.97,WNW,292,0.0,0.0,90,0.00,,,0.00,Wunderground v.1.15,2013-03-13 05:42:00,
2013-03-13 01:44:00,68.6,65.5,29.97,WNW,291,0.0,0.0,90,0.00,,,0.00,Wunderground v.1.15,2013-03-13 05:44:00,
2013-03-13 01:45:00,68.6,65.5,29.97,WNW,300,0.0,0.0,90,0.00,,,0.00,Wunderground v.1.15,2013-03-13 05:45:00,
2013-03-13 01:47:00,68.6,65.5,29.98,WNW,298,0.0,0.0,90,0.00,,,0.00,Wunderground v.1.15,2013-03-13 05:47:00,
2013-03-13 01:50:00,68.5,65.4,29.97,WNW,302,0.0,0.0,90,0.00,,,0.00,Wunderground v.1.15,2013-03-13 05:50:00,
2013-03-13 01:51:00,68.5,65.4,29.97,NW,305,0.0,0.0,90,0.00,,,0.00,Wunderground v.1.15,2013-03-13 05:51:00,
2013-03-13 01:56:00,68.3,65.3,29.97,WNW,299,0.0,0.0,90,0.00,,,0.00,Wunderground v.1.15,2013-03-13 05:56:00,
2013-03-13 01:57:00,68.3,65.3,29.97,WNW,297,0.0,0.0,90,0.00,,,0.00,Wunderground v.1.15,2013-03-13 05:57:00,
2013-03-13 01:59:00,68.3,65.3,29.97,WNW,300,0.0,0.0,90,0.00,,,0.00,Wunderground v.1.15,2013-03-13 05:59:00,
2013-03-13 02:01:00,68.3,65.3,29.97,WNW,297,0.0,0.0,90,0.00,,,0.00,Wunderground v.1.15,2013-03-13 06:01:00,
2013-03-13 02:02:00,68.3,65.3,29.97,NW,319,0.0,0.0,90,0.00,,,0.00,Wunderground v.1.15,2013-03-13 06:02:00,
2013-03-13 02:03:00,68.3,65.3,29.97,NW,306,0.0,0.0,90,0.00,,,0.00,Wunderground v.1.15,2013-03-13 06:03:00,
2013-03-13 02:04:00,68.3,65.3,29.97,WNW,303,0.0,0.0,90,0.00,,,0.00,Wunderground v.1.15,2013-03-13 06:04:00,
2013-03-13 02:07:00,68.2,64.8,29.97,NW,311,0.0,0.0,89,0.00,,,0.00,Wunderground v.1.15,2013-03-13 06:07:00,
2013-03-13 02:08:00,68.1,64.7,29.97,NW,307,0.0,0.0,89,0.00,,,0.00,Wunderground v.1.15,2013-03-13 06:08:00,
2013-03-13 02:09:00,68.0,64.6,29.97,NW,306,0.0,0.0,89,0.00,,,0.00,Wunderground v.1.15,2013-03-13 06:09:00,
2013-03-13 02:12:00,67.9,64.5,29.97,NW,304,0.0,0.0,89,0.00,,,0.00,Wunderground v.1.15,2013-03-13 06:12:00,
2013-03-13 02:13:00,67.9,64.5,29.97,NW,309,0.0,0.0,89,0.00,,,0.00,Wunderground v.1.15,2013-03-13 06:13:00,
2013-03-13 02:14:00,67.9,64.5,29.97,NW,319,0.0,0.0,89,0.00,,,0.00,Wunderground v.1.15,2013-03-13 06:14:00,
2013-03-13 02:17:00,67.7,64.3,29.97,NW,317,0.0,1.0,89,0.00,,,0.00,Wunderground v.1.15,2013-03-13 06:17:00,
2013-03-13 02:18:00,67.7,64.3,29.97,NW,317,0.0,1.0,89,0.00,,,0.00,Wunderground v.1.15,2013-03-13 06:18:00,
2013-03-13 02:19:00,67.7,64.3,29.97,NW,312,0.0,5.0,89,0.00,,,0.00,Wunderground v.1.15,2013-03-13 06:19:00,
2013-03-13 02:20:00,67.6,64.6,29.97,NW,312,0.0,1.0,90,0.00,,,0.00,Wunderground v.1.15,2013-03-13 06:20:00,
2013-03-13 02:23:00,67.6,64.6,29.97,NW,317,0.0,3.0,90,0.00,,,0.00,Wunderground v.1.15,2013-03-13 06:23:00,
2013-03-13 02:24:00,67.6,64.6,29.97,NW,317,0.0,3.0,90,0.00,,,0.00,Wunderground v.1.15,2013-03-13 06:24:00,
2013-03-13 02:25:00,67.5,64.5,29.97,NW,317,0.0,3.0,90,0.00,,,0.00,Wunderground v.1.15,2013-03-13 06:25:00,
2013-03-13 02:28:00,67.5,64.5,29.97,NW,317,0.0,3.0,90,0.00,,,0.00,Wunderground v.1.15,2013-03-13 06:28:00,
2013-03-13 02:29:00,67.5,64.5,29.96,NW,317,0.0,3.0,90,0.00,,,0.00,Wunderground v.1.15,2013-03-13 06:29:00,
2013-03-13 02:32:00,67.5,64.5,29.96,NW,316,1.0,1.0,90,0.00,,,0.00,Wunderground v.1.15,2013-03-13 06:32:00,
2013-03-13 02:34:00,67.4,64.4,29.96,NW,324,3.0,4.0,90,0.00,,,0.00,Wunderground v.1.15,2013-03-13 06:34:00,
2013-03-13 02:35:00,67.4,64.4,29.96,NW,324,3.0,4.0,90,0.00,,,0.00,Wunderground v.1.15,2013-03-13 06:35:00,
2013-03-13 02:37:00,67.3,64.3,29.96,NW,323,0.0,5.0,90,0.00,,,0.00,Wunderground v.1.15,2013-03-13 06:37:00,
2013-03-13 02:40:00,67.2,64.2,29.96,NW,322,0.0,1.0,90,0.00,,,0.00,Wunderground v.1.15,2013-03-13 06:40:00,
2013-03-13 02:42:00,67.0,64.0,29.96,NW,320,0.0,2.0,90,0.00,,,0.00,Wunderground v.1.15,2013-03-13 06:42:00,
2013-03-13 02:45:00,66.8,63.8,29.96,NW,319,0.0,4.0,90,0.00,,,0.00,Wunderground v.1.15,2013-03-13 06:45:00,
2013-03-13 02:46:00,66.8,63.8,29.96,NW,319,0.0,4.0,90,0.00,,,0.00,Wunderground v.1.15,2013-03-13 06:46:00,
2013-03-13 02:48:00,66.7,63.7,29.96,NW,313,4.0,5.0,90,0.00,,,0.00,Wunderground v.1.15,2013-03-13 06:48:00,
2013-03-13 02:51:00,66.5,63.5,29.96,NW,313,0.0,1.0,90,0.00,,,0.00,Wunderground v.1.15,2013-03-13 06:51:00,
2013-03-13 02:53:00,66.5,63.5,29.96,NW,319,0.0,5.0,90,0.00,,,0.00,Wunderground v.1.15,2013-03-13 06:53:00,
2013-03-13 02:56:00,66.3,63.3,29.96,NNW,331,0.0,6.0,90,0.00,,,0.00,Wunderground v.1.15,2013-03-13 06:56:00,
2013-03-13 02:58:00,66.2,63.2,29.96,NW,323,0.0,6.0,90,0.00,,,0.00,Wunderground v.1.15,2013-03-13 06:58:00,
2013-03-13 03:02:00,66.1,63.1,29.96,NW,321,0.0,4.0,90,0.00,,,0.00,Wunderground v.1.15,2013-03-13 07:02:00,
2013-03-13 03:03:00,66.0,63.0,29.96,NW,313,1.0,7.0,90,0.00,,,0.00,Wunderground v.1.15,2013-03-13 07:03:00,
2013-03-13 03:04:00,65.9,62.9,29.96,NW,313,0.0,7.0,90,0.00,,,0.00,Wunderground v.1.15,2013-03-13 07:04:00,
2013-03-13 03:07:00,65.8,62.8,29.96,NW,315,0.0,7.0,90,0.00,,,0.00,Wunderground v.1.15,2013-03-13 07:07:00,
2013-03-13 03:08:00,65.8,62.8,29.96,NW,309,3.0,7.0,90,0.00,,,0.00,Wunderground v.1.15,2013-03-13 07:08:00,
2013-03-13 03:09:00,65.7,62.7,29.96,NW,312,1.0,7.0,90,0.00,,,0.00,Wunderground v.1.15,2013-03-13 07:09:00,
2013-03-13 03:12:00,65.6,62.6,29.96,NW,326,0.0,6.0,90,0.00,,,0.00,Wunderground v.1.15,2013-03-13 07:12:00,
2013-03-13 03:13:00,65.6,62.6,29.96,NW,326,0.0,6.0,90,0.00,,,0.00,Wunderground v.1.15,2013-03-13 07:13:00,
2013-03-13 03:14:00,65.5,62.5,29.96,NW,323,0.0,6.0,90,0.00,,,0.00,Wunderground v.1.15,2013-03-13 07:14:00,
2013-03-13 03:17:00,65.5,62.5,29.95,NW,308,0.0,6.0,90,0.00,,,0.00,Wunderground v.1.15,2013-03-13 07:17:00,
2013-03-13 03:18:00,65.5,62.5,29.95,NW,309,0.0,6.0,90,0.00,,,0.00,Wunderground v.1.15,2013-03-13 07:18:00,
2013-03-13 03:19:00,65.5,62.5,29.95,NW,309,0.0,6.0,90,0.00,,,0.00,Wunderground v.1.15,2013-03-13 07:19:00,
2013-03-13 03:23:00,65.5,62.5,29.95,NW,309,0.0,1.0,90,0.00,,,0.00,Wunderground v.1.15,2013-03-13 07:23:00,
2013-03-13 03:24:00,65.5,62.5,29.95,NW,325,1.0,7.0,90,0.00,,,0.00,Wunderground v.1.15,2013-03-13 07:24:00,
2013-03-13 03:25:00,65.4,62.4,29.95,NW,319,7.0,7.0,90,0.00,,,0.00,Wunderground v.1.15,2013-03-13 07:25:00,
2013-03-13 03:28:00,65.3,62.3,29.96,NNW,330,7.0,9.0,90,0.00,,,0.00,Wunderground v.1.15,2013-03-13 07:28:00,
2013-03-13 03:29:00,65.3,62.3,29.96,NW,322,1.0,9.0,90,0.00,,,0.00,Wunderground v.1.15,2013-03-13 07:29:00,
2013-03-13 03:30:00,65.1,62.1,29.96,NW,315,5.0,6.0,90,0.00,,,0.00,Wunderground v.1.15,2013-03-13 07:30:00,
2013-03-13 03:34:00,64.7,61.4,29.95,NW,314,2.0,9.0,89,0.00,,,0.00,Wunderground v.1.15,2013-03-13 07:34:00,
2013-03-13 03:35:00,64.5,61.2,29.96,NW,313,1.0,9.0,89,0.00,,,0.00,Wunderground v.1.15,2013-03-13 07:35:00,
2013-03-13 03:39:00,64.2,60.9,29.96,NW,316,0.0,9.0,89,0.00,,,0.00,Wunderground v.1.15,2013-03-13 07:39:00,
2013-03-13 03:40:00,64.1,60.8,29.96,NW,317,0.0,1.0,89,0.00,,,0.00,Wunderground v.1.15,2013-03-13 07:40:00,
2013-03-13 03:44:00,64.0,60.7,29.95,NW,323,6.0,6.0,89,0.00,,,0.00,Wunderground v.1.15,2013-03-13 07:44:00,
2013-03-13 03:45:00,64.0,60.4,29.95,NW,313,3.0,6.0,88,0.00,,,0.00,Wunderground v.1.15,2013-03-13 07:45:00,
2013-03-13 03:47:00,63.8,60.2,29.96,NW,321,0.0,6.0,88,0.00,,,0.00,Wunderground v.1.15,2013-03-13 07:47:00,
2013-03-13 03:50:00,63.7,60.1,29.95,NNW,336,0.0,0.0,88,0.00,,,0.00,Wunderground v.1.15,2013-03-13 07:50:00,
2013-03-13 03:52:00,63.7,60.1,29.95,NNW,333,0.0,2.0,88,0.00,,,0.00,Wunderground v.1.15,2013-03-13 07:52:00,
2013-03-13 03:55:00,63.7,60.1,29.95,North,351,0.0,7.0,88,0.00,,,0.00,Wunderground v.1.15,2013-03-13 07:55:00,
2013-03-13 03:56:00,63.7,60.1,29.95,NNW,343,1.0,7.0,88,0.00,,,0.00,Wunderground v.1.15,2013-03-13 07:56:00,
2013-03-13 03:58:00,63.6,60.0,29.95,NNW,328,3.0,7.0,88,0.00,,,0.00,Wunderground v.1.15,2013-03-13 07:58:00,
2013-03-13 04:01:00,63.5,59.9,29.96,NW,316,0.0,1.0,88,0.00,,,0.00,Wunderground v.1.15,2013-03-13 08:01:00,
2013-03-13 04:02:00,63.5,59.6,29.95,NW,317,1.0,7.0,87,0.00,,,0.00,Wunderground v.1.15,2013-03-13 08:02:00,
2013-03-13 04:03:00,63.4,59.5,29.95,NW,304,2.0,9.0,87,0.00,,,0.00,Wunderground v.1.15,2013-03-13 08:03:00,
2013-03-13 04:06:00,62.9,58.6,29.96,NNW,327,0.0,10.0,86,0.00,,,0.00,Wunderground v.1.15,2013-03-13 08:06:00,
2013-03-13 04:08:00,62.7,58.5,29.96,NW,311,3.0,10.0,86,0.00,,,0.00,Wunderground v.1.15,2013-03-13 08:08:00,
2013-03-13 04:11:00,62.4,57.8,29.96,NNW,327,2.0,4.0,85,0.00,,,0.00,Wunderground v.1.15,2013-03-13 08:11:00,
2013-03-13 04:13:00,62.3,57.7,29.96,NNW,331,0.0,4.0,85,0.00,,,0.00,Wunderground v.1.15,2013-03-13 08:13:00,
2013-03-13 04:14:00,62.2,58.0,29.96,NW,315,4.0,7.0,86,0.00,,,0.00,Wunderground v.1.15,2013-03-13 08:14:00,
2013-03-13 04:16:00,62.1,57.9,29.96,NW,325,1.0,7.0,86,0.00,,,0.00,Wunderground v.1.15,2013-03-13 08:16:00,
2013-03-13 04:17:00,62.0,57.8,29.96,NW,320,6.0,8.0,86,0.00,,,0.00,Wunderground v.1.15,2013-03-13 08:17:00,
2013-03-13 04:18:00,62.0,57.8,29.96,NNW,340,4.0,8.0,86,0.00,,,0.00,Wunderground v.1.15,2013-03-13 08:18:00,
2013-03-13 04:19:00,61.9,57.7,29.96,NNW,327,1.0,9.0,86,0.00,,,0.00,Wunderground v.1.15,2013-03-13 08:19:00,
2013-03-13 04:21:00,61.7,57.5,29.96,NW,315,0.0,5.0,86,0.00,,,0.00,Wunderground v.1.15,2013-03-13 08:21:00,
2013-03-13 04:22:00,61.6,57.4,29.96,NW,315,0.0,5.0,86,0.00,,,0.00,Wunderground v.1.15,2013-03-13 08:22:00,
2013-03-13 04:23:00,61.6,57.4,29.96,NW,321,0.0,5.0,86,0.00,,,0.00,Wunderground v.1.15,2013-03-13 08:23:00,
2013-03-13 04:24:00,61.6,57.4,29.96,NW,324,4.0,7.0,86,0.00,,,0.00,Wunderground v.1.15,2013-03-13 08:24:00,
2013-03-13 04:27:00,61.3,57.1,29.96,NW,318,0.0,7.0,86,0.00,,,0.00,Wunderground v.1.15,2013-03-13 08:27:00,
2013-03-13 04:28:00,61.2,57.3,29.96,NW,324,0.0,7.0,87,0.00,,,0.00,Wunderground v.1.15,2013-03-13 08:28:00,
2013-03-13 04:30:00,61.1,57.2,29.96,NW,314,0.0,2.0,87,0.00,,,0.00,Wunderground v.1.15,2013-03-13 08:30:00,
2013-03-13 04:32:00,61.0,56.8,29.96,NW,305,2.0,4.0,86,0.00,,,0.00,Wunderground v.1.15,2013-03-13 08:32:00,
2013-03-13 04:34:00,60.9,56.7,29.96,NW,320,0.0,7.0,86,0.00,,,0.00,Wunderground v.1.15,2013-03-13 08:34:00,
2013-03-13 04:35:00,60.8,56.6,29.96,NW,307,0.0,7.0,86,0.00,,,0.00,Wunderground v.1.15,2013-03-13 08:35:00,
2013-03-13 04:38:00,60.5,56.3,29.97,NNW,327,2.0,7.0,86,0.00,,,0.00,Wunderground v.1.15,2013-03-13 08:38:00,
2013-03-13 04:39:00,60.4,56.2,29.97,NW,315,2.0,7.0,86,0.00,,,0.00,Wunderground v.1.15,2013-03-13 08:39:00,
2013-03-13 04:40:00,60.4,56.2,29.97,NW,312,0.0,4.0,86,0.00,,,0.00,Wunderground v.1.15,2013-03-13 08:40:00,
2013-03-13 04:43:00,60.2,56.0,29.97,NW,318,0.0,4.0,86,0.00,,,0.00,Wunderground v.1.15,2013-03-13 08:43:00,
2013-03-13 04:44:00,60.2,56.0,29.97,NW,318,1.0,4.0,86,0.00,,,0.00,Wunderground v.1.15,2013-03-13 08:44:00,
2013-03-13 04:45:00,60.2,56.0,29.97,NNW,329,0.0,6.0,86,0.00,,,0.00,Wunderground v.1.15,2013-03-13 08:45:00,
2013-03-13 04:46:00,60.2,56.0,29.97,NNW,329,0.0,6.0,86,0.00,,,0.00,Wunderground v.1.15,2013-03-13 08:46:00,
2013-03-13 04:48:00,60.0,55.8,29.97,NW,318,4.0,7.0,86,0.00,,,0.00,Wunderground v.1.15,2013-03-13 08:48:00,
2013-03-13 04:49:00,60.0,55.8,29.97,NW,315,0.0,7.0,86,0.00,,,0.00,Wunderground v.1.15,2013-03-13 08:49:00,
2013-03-13 04:50:00,59.9,55.7,29.97,NNW,335,0.0,1.0,86,0.00,,,0.00,Wunderground v.1.15,2013-03-13 08:50:00,
2013-03-13 04:51:00,59.9,55.7,29.97,NNW,333,0.0,1.0,86,0.00,,,0.00,Wunderground v.1.15,2013-03-13 08:51:00,
2013-03-13 04:54:00,59.8,55.6,29.97,NW,321,1.0,4.0,86,0.00,,,0.00,Wunderground v.1.15,2013-03-13 08:54:00,
2013-03-13 04:57:00,59.6,55.4,29.97,NNW,331,1.0,6.0,86,0.00,,,0.00,Wunderground v.1.15,2013-03-13 08:57:00,
2013-03-13 04:59:00,59.5,55.3,29.97,NW,321,6.0,6.0,86,0.00,,,0.00,Wunderground v.1.15,2013-03-13 08:59:00,
2013-03-13 05:00:00,59.4,55.2,29.97,NW,317,0.0,1.0,86,0.00,,,0.00,Wunderground v.1.15,2013-03-13 09:00:00,
2013-03-13 05:02:00,59.4,55.2,29.97,NW,320,7.0,8.0,86,0.00,,,0.00,Wunderground v.1.15,2013-03-13 09:02:00,
2013-03-13 05:04:00,59.3,55.1,29.97,NW,322,2.0,8.0,86,0.00,,,0.00,Wunderground v.1.15,2013-03-13 09:04:00,
2013-03-13 05:05:00,59.2,55.0,29.98,NNW,327,8.0,11.0,86,0.00,,,0.00,Wunderground v.1.15,2013-03-13 09:05:00,
2013-03-13 05:07:00,59.1,55.2,29.98,NNW,327,2.0,11.0,87,0.00,,,0.00,Wunderground v.1.15,2013-03-13 09:07:00,
2013-03-13 05:08:00,59.1,55.2,29.98,NNW,336,6.0,11.0,87,0.00,,,0.00,Wunderground v.1.15,2013-03-13 09:08:00,
2013-03-13 05:09:00,59.1,55.2,29.98,NW,323,0.0,11.0,87,0.00,,,0.00,Wunderground v.1.15,2013-03-13 09:09:00,
2013-03-13 05:11:00,59.0,55.1,29.98,NW,304,1.0,4.0,87,0.00,,,0.00,Wunderground v.1.15,2013-03-13 09:11:00,
2013-03-13 05:12:00,58.9,55.0,29.98,NW,307,0.0,4.0,87,0.00,,,0.00,Wunderground v.1.15,2013-03-13 09:12:00,
2013-03-13 05:13:00,58.9,55.0,29.98,NW,306,0.0,4.0,87,0.00,,,0.00,Wunderground v.1.15,2013-03-13 09:13:00,
2013-03-13 05:15:00,58.9,55.0,29.98,NW,325,0.0,4.0,87,0.00,,,0.00,Wunderground v.1.15,2013-03-13 09:15:00,
2013-03-13 05:16:00,58.9,55.0,29.98,NW,322,0.0,4.0,87,0.00,,,0.00,Wunderground v.1.15,2013-03-13 09:16:00,
2013-03-13 05:17:00,58.8,54.9,29.98,NW,312,0.0,5.0,87,0.00,,,0.00,Wunderground v.1.15,2013-03-13 09:17:00,
2013-03-13 05:18:00,58.7,54.8,29.98,NW,311,0.0,5.0,87,0.00,,,0.00,Wunderground v.1.15,2013-03-13 09:18:00,
2013-03-13 05:21:00,58.6,54.7,29.97,NW,319,0.0,1.0,87,0.00,,,0.00,Wunderground v.1.15,2013-03-13 09:21:00,
2013-03-13 05:22:00,58.5,54.6,29.97,NW,319,0.0,1.0,87,0.00,,,0.00,Wunderground v.1.15,2013-03-13 09:22:00,
2013-03-13 05:23:00,58.4,54.5,29.97,NW,309,1.0,1.0,87,0.00,,,0.00,Wunderground v.1.15,2013-03-13 09:23:00,
2013-03-13 05:26:00,58.2,54.3,29.98,NW,311,0.0,3.0,87,0.00,,,0.00,Wunderground v.1.15,2013-03-13 09:26:00,
2013-03-13 05:27:00,58.1,54.2,29.98,NW,311,0.0,3.0,87,0.00,,,0.00,Wunderground v.1.15,2013-03-13 09:27:00,
2013-03-13 05:28:00,58.1,54.6,29.98,NW,311,0.0,3.0,88,0.00,,,0.00,Wunderground v.1.15,2013-03-13 09:28:00,
2013-03-13 05:29:00,58.0,54.5,29.98,NW,311,0.0,3.0,88,0.00,,,0.00,Wunderground v.1.15,2013-03-13 09:29:00,
2013-03-13 05:31:00,57.9,54.4,29.98,NW,311,0.0,0.0,88,0.00,,,0.00,Wunderground v.1.15,2013-03-13 09:31:00,
2013-03-13 05:33:00,57.8,54.3,29.98,WNW,301,0.0,2.0,88,0.00,,,0.00,Wunderground v.1.15,2013-03-13 09:33:00,
2013-03-13 05:34:00,57.7,54.2,29.98,WNW,301,0.0,2.0,88,0.00,,,0.00,Wunderground v.1.15,2013-03-13 09:34:00,
2013-03-13 05:36:00,57.6,54.4,29.98,WNW,303,0.0,2.0,89,0.00,,,0.00,Wunderground v.1.15,2013-03-13 09:36:00,
2013-03-13 05:38:00,57.5,54.3,29.98,WNW,303,0.0,2.0,89,0.00,,,0.00,Wunderground v.1.15,2013-03-13 09:38:00,
2013-03-13 05:39:00,57.5,54.3,29.98,WNW,303,0.0,2.0,89,0.00,,,0.00,Wunderground v.1.15,2013-03-13 09:39:00,
2013-03-13 05:42:00,57.3,54.1,29.98,WNW,303,0.0,0.0,89,0.00,,,0.00,Wunderground v.1.15,2013-03-13 09:42:00,
2013-03-13 05:44:00,57.2,54.0,29.98,WNW,303,0.0,0.0,89,0.00,,,0.00,Wunderground v.1.15,2013-03-13 09:44:00,
2013-03-13 05:47:00,57.0,53.8,29.98,NW,305,0.0,2.0,89,0.00,,,0.00,Wunderground v.1.15,2013-03-13 09:47:00,
2013-03-13 05:49:00,56.9,54.0,29.99,NW,309,0.0,2.0,90,0.00,,,0.00,Wunderground v.1.15,2013-03-13 09:49:00,
2013-03-13 05:50:00,56.9,54.0,29.99,NW,309,0.0,0.0,90,0.00,,,0.00,Wunderground v.1.15,2013-03-13 09:50:00,
2013-03-13 05:52:00,56.8,53.9,29.98,NW,309,0.0,0.0,90,0.00,,,0.00,Wunderground v.1.15,2013-03-13 09:52:00,
2013-03-13 05:55:00,56.7,53.8,29.98,NW,309,0.0,0.0,90,0.00,,,0.00,Wunderground v.1.15,2013-03-13 09:55:00,
2013-03-13 05:59:00,56.5,53.6,29.98,NW,309,0.0,1.0,90,0.00,,,0.00,Wunderground v.1.15,2013-03-13 09:59:00,
2013-03-13 06:01:00,56.5,53.6,29.98,NW,309,0.0,0.0,90,0.00,,,0.00,Wunderground v.1.15,2013-03-13 10:01:00,
2013-03-13 06:02:00,56.4,53.5,29.98,NW,309,0.0,0.0,90,0.00,,,0.00,Wunderground v.1.15,2013-03-13 10:02:00,
2013-03-13 06:05:00,56.4,53.8,29.98,NW,309,0.0,0.0,91,0.00,,,0.00,Wunderground v.1.15,2013-03-13 10:05:00,
2013-03-13 06:06:00,56.4,53.8,29.98,NW,309,0.0,0.0,91,0.00,,,0.00,Wunderground v.1.15,2013-03-13 10:06:00,
2013-03-13 06:07:00,56.4,53.8,29.99,NW,309,0.0,0.0,91,0.00,,,0.00,Wunderground v.1.15,2013-03-13 10:07:00,
2013-03-13 06:08:00,56.4,53.8,29.99,NW,309,0.0,0.0,91,0.00,,,0.00,Wunderground v.1.15,2013-03-13 10:08:00,
2013-03-13 06:11:00,56.4,53.8,29.99,WNW,297,0.0,5.0,91,0.00,,,0.00,Wunderground v.1.15,2013-03-13 10:11:00,
2013-03-13 06:12:00,56.5,53.9,29.99,WNW,302,1.0,5.0,91,0.00,,,0.00,Wunderground v.1.15,2013-03-13 10:12:00,
2013-03-13 06:13:00,56.5,53.9,29.99,NW,323,6.0,6.0,91,0.00,,,0.00,Wunderground v.1.15,2013-03-13 10:13:00,
2013-03-13 06:16:00,56.7,54.4,30.00,NW,315,1.0,6.0,92,0.00,,,0.00,Wunderground v.1.15,2013-03-13 10:16:00,
2013-03-13 06:17:00,56.7,54.4,30.00,NW,309,7.0,7.0,92,0.00,,,0.00,Wunderground v.1.15,2013-03-13 10:17:00,
2013-03-13 06:18:00,56.8,54.5,30.00,NW,315,5.0,8.0,92,0.00,,,0.00,Wunderground v.1.15,2013-03-13 10:18:00,
2013-03-13 06:22:00,56.9,54.6,29.99,NNW,327,0.0,9.0,92,0.00,,,0.00,Wunderground v.1.15,2013-03-13 10:22:00,
2013-03-13 06:23:00,57.0,54.7,29.99,NW,313,0.0,9.0,92,0.00,,,0.00,Wunderground v.1.15,2013-03-13 10:23:00,
2013-03-13 06:24:00,57.1,54.8,29.99,NW,309,0.0,9.0,92,0.00,,,0.00,Wunderground v.1.15,2013-03-13 10:24:00,
2013-03-13 06:27:00,57.1,54.8,29.99,NNW,327,1.0,9.0,92,0.00,,,0.00,Wunderground v.1.15,2013-03-13 10:27:00,
2013-03-13 06:28:00,57.1,54.8,29.99,NW,304,0.0,9.0,92,0.00,,,0.00,Wunderground v.1.15,2013-03-13 10:28:00,
2013-03-13 06:29:00,57.1,54.8,29.99,NNW,347,4.0,9.0,92,0.00,,,0.00,Wunderground v.1.15,2013-03-13 10:29:00,
2013-03-13 06:32:00,57.1,54.8,30.00,NW,315,1.0,2.0,92,0.00,,,0.00,Wunderground v.1.15,2013-03-13 10:32:00,
2013-03-13 06:33:00,57.1,54.8,30.00,NW,314,0.0,5.0,92,0.00,,,0.00,Wunderground v.1.15,2013-03-13 10:33:00,
2013-03-13 06:34:00,57.1,54.8,30.00,NW,325,4.0,5.0,92,0.00,,,0.00,Wunderground v.1.15,2013-03-13 10:34:00,
2013-03-13 06:38:00,57.1,54.8,30.00,NNW,338,0.0,5.0,92,0.00,,,0.00,Wunderground v.1.15,2013-03-13 10:38:00,
2013-03-13 06:39:00,57.0,54.7,30.00,NW,322,0.0,6.0,92,0.00,,,0.00,Wunderground v.1.15,2013-03-13 10:39:00,
2013-03-13 06:40:00,57.0,54.7,30.00,NNW,329,4.0,4.0,92,0.00,,,0.00,Wunderground v.1.15,2013-03-13 10:40:00,
2013-03-13 06:44:00,56.9,54.6,30.00,NNW,329,0.0,6.0,92,0.00,,,0.00,Wunderground v.1.15,2013-03-13 10:44:00,
2013-03-13 06:46:00,56.8,54.5,30.00,NNW,329,0.0,6.0,92,0.00,,,0.00,Wunderground v.1.15,2013-03-13 10:46:00,
2013-03-13 06:49:00,56.8,54.5,30.00,NNW,333,0.0,6.0,92,0.00,,,0.00,Wunderground v.1.15,2013-03-13 10:49:00,
2013-03-13 06:50:00,56.8,54.5,30.00,NNW,333,0.0,1.0,92,0.00,,,0.00,Wunderground v.1.15,2013-03-13 10:50:00,
2013-03-13 06:51:00,56.7,54.4,30.00,NNW,333,0.0,1.0,92,0.00,,,0.00,Wunderground v.1.15,2013-03-13 10:51:00,
2013-03-13 06:54:00,56.6,54.6,30.00,NNW,330,0.0,1.0,93,0.00,,,0.00,Wunderground v.1.15,2013-03-13 10:54:00,
2013-03-13 06:55:00,56.6,54.6,30.00,NNW,331,3.0,3.0,93,0.00,,,0.00,Wunderground v.1.15,2013-03-13 10:55:00,
2013-03-13 06:57:00,56.6,54.6,30.00,NW,324,0.0,3.0,93,0.00,,,0.00,Wunderground v.1.15,2013-03-13 10:57:00,
2013-03-13 07:00:00,56.6,54.6,30.00,NW,321,0.0,0.0,93,0.00,,,0.00,Wunderground v.1.15,2013-03-13 11:00:00,
2013-03-13 07:01:00,56.6,54.6,30.00,NW,322,0.0,0.0,93,0.00,,,0.00,Wunderground v.1.15,2013-03-13 11:01:00,
2013-03-13 07:02:00,56.6,54.6,30.00,NW,322,0.0,0.0,93,0.00,,,0.00,Wunderground v.1.15,2013-03-13 11:02:00,
2013-03-13 07:05:00,56.5,54.5,30.01,NW,319,0.0,1.0,93,0.00,,,0.00,Wunderground v.1.15,2013-03-13 11:05:00,
2013-03-13 07:07:00,56.5,54.5,30.01,NW,318,0.0,1.0,93,0.00,,,0.00,Wunderground v.1.15,2013-03-13 11:07:00,
2013-03-13 07:10:00,56.5,54.5,30.01,NW,319,1.0,1.0,93,0.00,,,0.00,Wunderground v.1.15,2013-03-13 11:10:00,
2013-03-13 07:12:00,56.4,54.4,30.01,NW,319,0.0,1.0,93,0.00,,,0.00,Wunderground v.1.15,2013-03-13 11:12:00,
2013-03-13 07:13:00,56.4,54.4,30.01,NW,319,1.0,1.0,93,0.00,,,0.00,Wunderground v.1.15,2013-03-13 11:13:00,
2013-03-13 07:15:00,56.4,54.4,30.01,NW,317,0.0,2.0,93,0.00,,,0.00,Wunderground v.1.15,2013-03-13 11:15:00,
2013-03-13 07:18:00,56.3,54.3,30.01,NW,317,0.0,2.0,93,0.00,,,0.00,Wunderground v.1.15,2013-03-13 11:18:00,
2013-03-13 07:21:00,56.2,54.2,30.01,NW,322,0.0,0.0,93,0.00,,,0.00,Wunderground v.1.15,2013-03-13 11:21:00,
2013-03-13 07:23:00,56.2,54.2,30.01,NW,312,0.0,1.0,93,0.00,,,0.00,Wunderground v.1.15,2013-03-13 11:23:00,
2013-03-13 07:26:00,56.0,54.0,30.01,NW,313,0.0,1.0,93,0.00,,,0.00,Wunderground v.1.15,2013-03-13 11:26:00,
2013-03-13 07:28:00,55.9,53.9,30.01,NW,313,0.0,1.0,93,0.00,,,0.00,Wunderground v.1.15,2013-03-13 11:28:00,
2013-03-13 07:31:00,55.8,53.8,30.01,NW,316,0.0,1.0,93,0.00,,,0.00,Wunderground v.1.15,2013-03-13 11:31:00,
2013-03-13 07:32:00,55.7,53.7,30.01,NW,316,0.0,1.0,93,0.00,,,0.00,Wunderground v.1.15,2013-03-13 11:32:00,
2013-03-13 07:33:00,55.7,53.7,30.01,NW,316,0.0,1.0,93,0.00,,,0.00,Wunderground v.1.15,2013-03-13 11:33:00,
2013-03-13 07:34:00,55.7,53.7,30.01,NW,316,0.0,1.0,93,0.00,,,0.00,Wunderground v.1.15,2013-03-13 11:34:00,
2013-03-13 07:37:00,55.6,53.6,30.02,NW,315,1.0,3.0,93,0.00,,,0.00,Wunderground v.1.15,2013-03-13 11:37:00,
2013-03-13 07:38:00,55.6,53.6,30.02,NW,315,0.0,3.0,93,0.00,,,0.00,Wunderground v.1.15,2013-03-13 11:38:00,
2013-03-13 07:39:00,55.5,53.5,30.02,NW,315,0.0,3.0,93,0.00,,,0.00,Wunderground v.1.15,2013-03-13 11:39:00,
2013-03-13 07:43:00,55.4,53.4,30.02,NW,315,0.0,0.0,93,0.00,,,0.00,Wunderground v.1.15,2013-03-13 11:43:00,
2013-03-13 07:44:00,55.4,53.4,30.02,NW,315,0.0,0.0,93,0.00,,,0.00,Wunderground v.1.15,2013-03-13 11:44:00,
2013-03-13 07:48:00,55.3,53.6,30.02,NW,317,0.0,0.0,94,0.00,,,0.00,Wunderground v.1.15,2013-03-13 11:48:00,
2013-03-13 07:49:00,55.3,53.6,30.02,NW,317,0.0,0.0,94,0.00,,,0.00,Wunderground v.1.15,2013-03-13 11:49:00,
2013-03-13 07:54:00,55.3,53.6,30.03,NW,315,0.0,1.0,94,0.00,,,0.00,Wunderground v.1.15,2013-03-13 11:54:00,
2013-03-13 07:55:00,55.3,53.6,30.03,NW,315,0.0,1.0,94,0.00,,,0.00,Wunderground v.1.15,2013-03-13 11:55:00,
2013-03-13 07:59:00,55.4,53.7,30.02,NW,315,0.0,1.0,94,0.00,,,0.00,Wunderground v.1.15,2013-03-13 11:59:00,
2013-03-13 08:00:00,55.4,53.7,30.02,NW,315,0.0,0.0,94,0.00,,,0.00,Wunderground v.1.15,2013-03-13 12:00:00,
2013-03-13 08:05:00,55.5,53.8,30.03,NW,317,0.0,5.0,94,0.00,,,0.00,Wunderground v.1.15,2013-03-13 12:05:00,
2013-03-13 08:07:00,55.5,53.8,30.03,NW,317,0.0,5.0,94,0.00,,,0.00,Wunderground v.1.15,2013-03-13 12:07:00,
2013-03-13 08:08:00,55.6,53.9,30.03,NW,320,0.0,5.0,94,0.00,,,0.00,Wunderground v.1.15,2013-03-13 12:08:00,
2013-03-13 08:10:00,55.6,53.9,30.03,NW,319,0.0,0.0,94,0.00,,,0.00,Wunderground v.1.15,2013-03-13 12:10:00,
2013-03-13 08:12:00,55.7,54.0,30.03,NW,322,5.0,5.0,94,0.00,,,0.00,Wunderground v.1.15,2013-03-13 12:12:00,
2013-03-13 08:13:00,55.7,54.0,30.03,NW,321,0.0,5.0,94,0.00,,,0.00,Wunderground v.1.15,2013-03-13 12:13:00,
2013-03-13 08:15:00,55.8,54.1,30.03,NW,312,1.0,6.0,94,0.00,,,0.00,Wunderground v.1.15,2013-03-13 12:15:00,
2013-03-13 08:16:00,55.8,54.1,30.03,NW,314,0.0,6.0,94,0.00,,,0.00,Wunderground v.1.15,2013-03-13 12:16:00,
2013-03-13 08:18:00,55.9,54.2,30.03,NW,308,0.0,6.0,94,0.00,,,0.00,Wunderground v.1.15,2013-03-13 12:18:00,
2013-03-13 08:19:00,56.0,54.3,30.03,NNW,337,3.0,6.0,94,0.00,,,0.00,Wunderground v.1.15,2013-03-13 12:19:00,
2013-03-13 08:20:00,56.2,54.5,30.03,NNW,331,5.0,6.0,94,0.00,,,0.00,Wunderground v.1.15,2013-03-13 12:20:00,
2013-03-13 08:21:00,56.2,54.5,30.03,NNW,331,5.0,6.0,94,0.00,,,0.00,Wunderground v.1.15,2013-03-13 12:21:00,
2013-03-13 08:23:00,56.3,54.3,30.03,NW,326,5.0,6.0,93,0.00,,,0.00,Wunderground v.1.15,2013-03-13 12:23:00,
2013-03-13 08:24:00,56.4,54.4,30.03,NW,324,0.0,6.0,93,0.00,,,0.00,Wunderground v.1.15,2013-03-13 12:24:00,
2013-03-13 08:25:00,56.6,54.6,30.03,NW,325,0.0,6.0,93,0.00,,,0.00,Wunderground v.1.15,2013-03-13 12:25:00,
2013-03-13 08:26:00,56.6,54.6,30.03,NNW,331,6.0,6.0,93,0.00,,,0.00,Wunderground v.1.15,2013-03-13 12:26:00,
2013-03-13 08:29:00,56.7,54.7,30.03,NW,326,0.0,7.0,93,0.00,,,0.00,Wunderground v.1.15,2013-03-13 12:29:00,
2013-03-13 08:30:00,56.8,54.5,30.03,NNW,343,0.0,6.0,92,0.00,,,0.00,Wunderground v.1.15,2013-03-13 12:30:00,
2013-03-13 08:31:00,56.9,54.6,30.04,NNW,340,1.0,6.0,92,0.00,,,0.00,Wunderground v.1.15,2013-03-13 12:31:00,
2013-03-13 08:32:00,56.9,54.6,30.04,NNW,336,0.0,6.0,92,0.00,,,0.00,Wunderground v.1.15,2013-03-13 12:32:00,
2013-03-13 08:34:00,57.0,54.7,30.04,NNW,333,5.0,6.0,92,0.00,,,0.00,Wunderground v.1.15,2013-03-13 12:34:00,
2013-03-13 08:35:00,57.0,54.7,30.04,NW,316,4.0,8.0,92,0.00,,,0.00,Wunderground v.1.15,2013-03-13 12:35:00,
2013-03-13 08:36:00,57.0,54.7,30.04,NNW,339,4.0,8.0,92,0.00,,,0.00,Wunderground v.1.15,2013-03-13 12:36:00,
2013-03-13 08:37:00,57.0,54.4,30.04,NNW,344,2.0,8.0,91,0.00,,,0.00,Wunderground v.1.15,2013-03-13 12:37:00,
2013-03-13 08:39:00,57.0,54.4,30.04,NW,322,0.0,8.0,91,0.00,,,0.00,Wunderground v.1.15,2013-03-13 12:39:00,
2013-03-13 08:40:00,56.9,54.3,30.03,NNW,334,5.0,8.0,91,0.00,,,0.00,Wunderground v.1.15,2013-03-13 12:40:00,
2013-03-13 08:42:00,57.0,54.4,30.04,North,350,6.0,8.0,91,0.00,,,0.00,Wunderground v.1.15,2013-03-13 12:42:00,
2013-03-13 08:45:00,57.0,54.1,30.04,North,350,0.0,8.0,90,0.00,,,0.00,Wunderground v.1.15,2013-03-13 12:45:00,
2013-03-13 08:46:00,57.0,54.1,30.04,NW,320,5.0,8.0,90,0.00,,,0.00,Wunderground v.1.15,2013-03-13 12:46:00,
2013-03-13 08:47:00,57.0,54.1,30.04,NNW,342,0.0,8.0,90,0.00,,,0.00,Wunderground v.1.15,2013-03-13 12:47:00,
2013-03-13 08:48:00,57.0,54.1,30.04,NNW,327,5.0,8.0,90,0.00,,,0.00,Wunderground v.1.15,2013-03-13 12:48:00,
2013-03-13 08:50:00,57.1,53.9,30.04,NNW,331,8.0,8.0,89,0.00,,,0.00,Wunderground v.1.15,2013-03-13 12:50:00,
2013-03-13 08:52:00,57.3,54.1,30.05,NNW,340,5.0,8.0,89,0.00,,,0.00,Wunderground v.1.15,2013-03-13 12:52:00,
2013-03-13 08:53:00,57.4,54.2,30.04,NW,315,0.0,8.0,89,0.00,,,0.00,Wunderground v.1.15,2013-03-13 12:53:00,
2013-03-13 08:56:00,57.7,54.5,30.04,NNE,15,4.0,8.0,89,0.00,,,0.00,Wunderground v.1.15,2013-03-13 12:56:00,
2013-03-13 08:58:00,58.0,54.5,30.04,NW,312,2.0,8.0,88,0.00,,,0.00,Wunderground v.1.15,2013-03-13 12:58:00,
2013-03-13 09:03:00,58.4,54.5,30.05,NW,325,0.0,6.0,87,0.00,,,0.00,Wunderground v.1.15,2013-03-13 13:03:00,
2013-03-13 09:04:00,58.6,54.7,30.05,NW,316,0.0,6.0,87,0.00,,,0.00,Wunderground v.1.15,2013-03-13 13:04:00,
2013-03-13 09:05:00,58.7,54.8,30.05,NW,325,0.0,6.0,87,0.00,,,0.00,Wunderground v.1.15,2013-03-13 13:05:00,
2013-03-13 09:08:00,58.9,54.7,30.05,NNW,327,0.0,7.0,86,0.00,,,0.00,Wunderground v.1.15,2013-03-13 13:08:00,
2013-03-13 09:10:00,58.9,54.4,30.05,NW,321,1.0,2.0,85,0.00,,,0.00,Wunderground v.1.15,2013-03-13 13:10:00,
2013-03-13 09:14:00,58.9,54.1,30.05,North,355,8.0,8.0,84,0.00,,,0.00,Wunderground v.1.15,2013-03-13 13:14:00,
2013-03-13 09:15:00,58.9,54.1,30.05,NNW,334,8.0,10.0,84,0.00,,,0.00,Wunderground v.1.15,2013-03-13 13:15:00,
2013-03-13 09:16:00,58.9,54.1,30.05,NW,317,0.0,10.0,84,0.00,,,0.00,Wunderground v.1.15,2013-03-13 13:16:00,
2013-03-13 09:19:00,59.1,53.9,30.05,North,360,0.0,10.0,83,0.00,,,0.00,Wunderground v.1.15,2013-03-13 13:19:00,
2013-03-13 09:20:00,59.2,54.0,30.05,North,351,1.0,3.0,83,0.00,,,0.00,Wunderground v.1.15,2013-03-13 13:20:00,
2013-03-13 09:21:00,59.4,54.2,30.05,NNW,343,5.0,10.0,83,0.00,,,0.00,Wunderground v.1.15,2013-03-13 13:21:00,
2013-03-13 09:24:00,59.5,54.0,30.05,NNW,330,6.0,10.0,82,0.00,,,0.00,Wunderground v.1.15,2013-03-13 13:24:00,
2013-03-13 09:25:00,59.6,54.1,30.05,North,11,10.0,10.0,82,0.00,,,0.00,Wunderground v.1.15,2013-03-13 13:25:00,
2013-03-13 09:26:00,59.6,53.4,30.05,North,355,6.0,10.0,80,0.00,,,0.00,Wunderground v.1.15,2013-03-13 13:26:00,
2013-03-13 09:29:00,59.6,53.8,30.05,NNW,342,4.0,10.0,81,0.00,,,0.00,Wunderground v.1.15,2013-03-13 13:29:00,
2013-03-13 09:31:00,59.6,53.4,30.05,NW,325,5.0,5.0,80,0.00,,,0.00,Wunderground v.1.15,2013-03-13 13:31:00,
2013-03-13 09:32:00,59.6,53.8,30.05,NNW,338,5.0,6.0,81,0.00,,,0.00,Wunderground v.1.15,2013-03-13 13:32:00,
2013-03-13 09:33:00,59.6,53.4,30.05,NW,323,0.0,6.0,80,0.00,,,0.00,Wunderground v.1.15,2013-03-13 13:33:00,
2013-03-13 09:34:00,59.8,53.6,30.05,NNW,327,0.0,6.0,80,0.00,,,0.00,Wunderground v.1.15,2013-03-13 13:34:00,
2013-03-13 09:36:00,59.9,53.7,30.05,North,360,0.0,6.0,80,0.00,,,0.00,Wunderground v.1.15,2013-03-13 13:36:00,
2013-03-13 09:38:00,60.3,54.1,30.05,North,5,7.0,7.0,80,0.00,,,0.00,Wunderground v.1.15,2013-03-13 13:38:00,
2013-03-13 09:40:00,60.6,54.0,30.05,NNW,333,0.0,3.0,79,0.00,,,0.00,Wunderground v.1.15,2013-03-13 13:40:00,
2013-03-13 09:42:00,61.5,55.3,30.06,NNW,328,5.0,11.0,80,0.00,,,0.00,Wunderground v.1.15,2013-03-13 13:42:00,
2013-03-13 09:43:00,61.8,54.9,30.06,NNW,342,0.0,11.0,78,0.00,,,0.00,Wunderground v.1.15,2013-03-13 13:43:00,
2013-03-13 09:44:00,61.9,54.6,30.06,NNW,342,6.0,11.0,77,0.00,,,0.00,Wunderground v.1.15,2013-03-13 13:44:00,
2013-03-13 09:46:00,61.9,54.2,30.06,North,9,2.0,11.0,76,0.00,,,0.00,Wunderground v.1.15,2013-03-13 13:46:00,
2013-03-13 09:47:00,61.9,54.2,30.06,NNW,343,3.0,12.0,76,0.00,,,0.00,Wunderground v.1.15,2013-03-13 13:47:00,
2013-03-13 09:49:00,62.0,54.3,30.06,NNW,334,7.0,12.0,76,0.00,,,0.00,Wunderground v.1.15,2013-03-13 13:49:00,
2013-03-13 09:50:00,62.2,54.5,30.06,NW,326,8.0,9.0,76,0.00,,,0.00,Wunderground v.1.15,2013-03-13 13:50:00,
2013-03-13 09:51:00,62.2,54.5,30.06,NW,316,0.0,9.0,76,0.00,,,0.00,Wunderground v.1.15,2013-03-13 13:51:00,
2013-03-13 09:52:00,62.2,54.5,30.06,NW,324,3.0,9.0,76,0.00,,,0.00,Wunderground v.1.15,2013-03-13 13:52:00,
2013-03-13 09:54:00,62.2,54.2,30.06,NNW,343,0.0,9.0,75,0.00,,,0.00,Wunderground v.1.15,2013-03-13 13:54:00,
2013-03-13 09:55:00,62.1,54.1,30.06,NNW,338,4.0,9.0,75,0.00,,,0.00,Wunderground v.1.15,2013-03-13 13:55:00,
2013-03-13 09:57:00,62.0,54.0,30.06,NNW,344,6.0,9.0,75,0.00,,,0.00,Wunderground v.1.15,2013-03-13 13:57:00,
2013-03-13 09:58:00,62.0,54.3,30.06,NNW,340,4.0,9.0,76,0.00,,,0.00,Wunderground v.1.15,2013-03-13 13:58:00,
2013-03-13 09:59:00,62.0,54.3,30.06,North,355,13.0,13.0,76,0.00,,,0.00,Wunderground v.1.15,2013-03-13 13:59:00,
2013-03-13 10:01:00,62.0,54.3,30.06,North,350,1.0,7.0,76,0.00,,,0.00,Wunderground v.1.15,2013-03-13 14:01:00,
2013-03-13 10:02:00,62.1,54.4,30.06,NNW,340,7.0,9.0,76,0.00,,,0.00,Wunderground v.1.15,2013-03-13 14:02:00,
2013-03-13 10:03:00,62.1,54.4,30.06,NNW,333,0.0,9.0,76,0.00,,,0.00,Wunderground v.1.15,2013-03-13 14:03:00,
2013-03-13 10:04:00,62.4,55.1,30.06,NW,326,6.0,9.0,77,0.00,,,0.00,Wunderground v.1.15,2013-03-13 14:04:00,
2013-03-13 10:06:00,62.7,55.0,30.07,NW,317,4.0,9.0,76,0.00,,,0.00,Wunderground v.1.15,2013-03-13 14:06:00,
2013-03-13 10:08:00,63.0,55.3,30.07,NNW,348,7.0,9.0,76,0.00,,,0.00,Wunderground v.1.15,2013-03-13 14:08:00,
2013-03-13 10:09:00,63.2,55.5,30.07,NNW,327,9.0,12.0,76,0.00,,,0.00,Wunderground v.1.15,2013-03-13 14:09:00,
2013-03-13 10:10:00,63.2,54.8,30.07,NNW,346,9.0,9.0,74,0.00,,,0.00,Wunderground v.1.15,2013-03-13 14:10:00,
2013-03-13 10:12:00,63.2,55.1,30.06,NW,321,2.0,9.0,75,0.00,,,0.00,Wunderground v.1.15,2013-03-13 14:12:00,
2013-03-13 10:13:00,63.2,55.1,30.07,North,360,8.0,9.0,75,0.00,,,0.00,Wunderground v.1.15,2013-03-13 14:13:00,
2013-03-13 10:15:00,62.9,54.5,30.07,North,360,6.0,10.0,74,0.00,,,0.00,Wunderground v.1.15,2013-03-13 14:15:00,
2013-03-13 10:17:00,62.6,54.9,30.07,NNW,336,0.0,10.0,76,0.00,,,0.00,Wunderground v.1.15,2013-03-13 14:17:00,
2013-03-13 10:18:00,62.5,54.8,30.07,NNW,336,4.0,10.0,76,0.00,,,0.00,Wunderground v.1.15,2013-03-13 14:18:00,
2013-03-13 10:20:00,62.4,54.4,30.07,North,9,6.0,6.0,75,0.00,,,0.00,Wunderground v.1.15,2013-03-13 14:20:00,
2013-03-13 10:22:00,62.3,54.6,30.07,NW,326,5.0,7.0,76,0.00,,,0.00,Wunderground v.1.15,2013-03-13 14:22:00,
2013-03-13 10:23:00,62.3,55.0,30.07,NNW,340,5.0,7.0,77,0.00,,,0.00,Wunderground v.1.15,2013-03-13 14:23:00,
2013-03-13 10:26:00,62.6,55.3,30.07,NNW,341,8.0,11.0,77,0.00,,,0.00,Wunderground v.1.15,2013-03-13 14:26:00,
2013-03-13 10:27:00,62.9,55.2,30.07,NNW,341,0.0,11.0,76,0.00,,,0.00,Wunderground v.1.15,2013-03-13 14:27:00,
2013-03-13 10:28:00,63.0,55.3,30.07,NW,322,5.0,11.0,76,0.00,,,0.00,Wunderground v.1.15,2013-03-13 14:28:00,
2013-03-13 10:31:00,63.6,55.9,30.07,North,350,0.0,5.0,76,0.00,,,0.00,Wunderground v.1.15,2013-03-13 14:31:00,
2013-03-13 10:33:00,63.9,55.8,30.07,NNW,331,0.0,5.0,75,0.00,,,0.00,Wunderground v.1.15,2013-03-13 14:33:00,
2013-03-13 10:34:00,64.0,56.6,30.07,NNW,348,1.0,5.0,77,0.00,,,0.00,Wunderground v.1.15,2013-03-13 14:34:00,
2013-03-13 10:36:00,64.5,57.1,30.07,NNW,342,6.0,6.0,77,0.00,,,0.00,Wunderground v.1.15,2013-03-13 14:36:00,
2013-03-13 10:38:00,65.0,56.9,30.07,North,355,5.0,8.0,75,0.00,,,0.00,Wunderground v.1.15,2013-03-13 14:38:00,
2013-03-13 10:39:00,65.1,57.0,30.07,NNW,331,10.0,10.0,75,0.00,,,0.00,Wunderground v.1.15,2013-03-13 14:39:00,
2013-03-13 10:42:00,65.0,56.1,30.07,North,360,0.0,8.0,73,0.00,,,0.00,Wunderground v.1.15,2013-03-13 14:42:00,
2013-03-13 10:43:00,64.9,56.4,30.07,North,355,4.0,8.0,74,0.00,,,0.00,Wunderground v.1.15,2013-03-13 14:43:00,
2013-03-13 10:44:00,64.8,56.3,30.08,NW,313,6.0,8.0,74,0.00,,,0.00,Wunderground v.1.15,2013-03-13 14:44:00,
2013-03-13 10:45:00,64.8,56.3,30.08,NNW,336,5.0,8.0,74,0.00,,,0.00,Wunderground v.1.15,2013-03-13 14:45:00,
2013-03-13 10:47:00,64.8,56.7,30.08,North,5,4.0,8.0,75,0.00,,,0.00,Wunderground v.1.15,2013-03-13 14:47:00,
2013-03-13 10:49:00,65.0,57.2,30.08,NNW,344,0.0,8.0,76,0.00,,,0.00,Wunderground v.1.15,2013-03-13 14:49:00,
2013-03-13 10:50:00,65.2,57.4,30.08,NW,315,0.0,3.0,76,0.00,,,0.00,Wunderground v.1.15,2013-03-13 14:50:00,
2013-03-13 10:52:00,65.6,57.1,30.08,NNW,345,10.0,10.0,74,0.00,,,0.00,Wunderground v.1.15,2013-03-13 14:52:00,
2013-03-13 10:54:00,65.5,57.0,30.08,NW,315,5.0,10.0,74,0.00,,,0.00,Wunderground v.1.15,2013-03-13 14:54:00,
2013-03-13 10:55:00,65.6,57.1,30.07,NNW,333,4.0,10.0,74,0.00,,,0.00,Wunderground v.1.15,2013-03-13 14:55:00,
2013-03-13 10:57:00,65.7,57.2,30.07,North,351,0.0,10.0,74,0.00,,,0.00,Wunderground v.1.15,2013-03-13 14:57:00,
2013-03-13 10:58:00,65.8,57.3,30.07,NNE,23,2.0,11.0,74,0.00,,,0.00,Wunderground v.1.15,2013-03-13 14:58:00,
2013-03-13 10:59:00,65.8,56.9,30.07,NNW,345,8.0,11.0,73,0.00,,,0.00,Wunderground v.1.15,2013-03-13 14:59:00,
2013-03-13 11:00:00,65.9,57.7,30.07,North,351,0.0,3.0,75,0.00,,,0.00,Wunderground v.1.15,2013-03-13 15:00:00,
2013-03-13 11:02:00,66.4,58.6,30.07,NW,321,5.0,9.0,76,0.00,,,0.00,Wunderground v.1.15,2013-03-13 15:02:00,
2013-03-13 11:04:00,66.6,57.7,30.07,NNW,328,0.0,11.0,73,0.00,,,0.00,Wunderground v.1.15,2013-03-13 15:04:00,
2013-03-13 11:05:00,66.6,58.1,30.07,NNW,342,0.0,11.0,74,0.00,,,0.00,Wunderground v.1.15,2013-03-13 15:05:00,
2013-03-13 11:07:00,67.3,59.1,30.07,NW,319,0.0,11.0,75,0.00,,,0.00,Wunderground v.1.15,2013-03-13 15:07:00,
2013-03-13 11:09:00,67.6,58.6,30.08,NNW,334,0.0,11.0,73,0.00,,,0.00,Wunderground v.1.15,2013-03-13 15:09:00,
2013-03-13 11:10:00,67.9,58.9,30.07,NW,324,2.0,8.0,73,0.00,,,0.00,Wunderground v.1.15,2013-03-13 15:10:00,
2013-03-13 11:13:00,68.2,59.2,30.07,NW,317,0.0,8.0,73,0.00,,,0.00,Wunderground v.1.15,2013-03-13 15:13:00,
2013-03-13 11:15:00,68.3,58.9,30.07,NW,317,1.0,8.0,72,0.00,,,0.00,Wunderground v.1.15,2013-03-13 15:15:00,
2013-03-13 11:16:00,68.2,58.4,30.08,NW,323,4.0,8.0,71,0.00,,,0.00,Wunderground v.1.15,2013-03-13 15:16:00,
2013-03-13 11:17:00,68.0,58.2,30.07,NW,318,6.0,10.0,71,0.00,,,0.00,Wunderground v.1.15,2013-03-13 15:17:00,
2013-03-13 11:18:00,67.6,58.2,30.07,NNW,328,3.0,10.0,72,0.00,,,0.00,Wunderground v.1.15,2013-03-13 15:18:00,
2013-03-13 11:20:00,67.7,58.7,30.08,WNW,302,4.0,7.0,73,0.00,,,0.00,Wunderground v.1.15,2013-03-13 15:20:00,
2013-03-13 11:22:00,67.8,58.8,30.08,NNW,331,1.0,11.0,73,0.00,,,0.00,Wunderground v.1.15,2013-03-13 15:22:00,
2013-03-13 11:24:00,67.8,58.1,30.08,NW,304,1.0,11.0,71,0.00,,,0.00,Wunderground v.1.15,2013-03-13 15:24:00,
2013-03-13 11:25:00,67.8,58.4,30.08,NNW,336,6.0,11.0,72,0.00,,,0.00,Wunderground v.1.15,2013-03-13 15:25:00,
2013-03-13 11:27:00,67.7,58.3,30.07,NNW,328,2.0,11.0,72,0.00,,,0.00,Wunderground v.1.15,2013-03-13 15:27:00,
2013-03-13 11:28:00,67.8,58.8,30.07,NW,317,2.0,11.0,73,0.00,,,0.00,Wunderground v.1.15,2013-03-13 15:28:00,
2013-03-13 11:30:00,68.0,59.0,30.07,North,355,6.0,10.0,73,0.00,,,0.00,Wunderground v.1.15,2013-03-13 15:30:00,
2013-03-13 11:31:00,68.0,59.0,30.07,NNW,340,5.0,10.0,73,0.00,,,0.00,Wunderground v.1.15,2013-03-13 15:31:00,
2013-03-13 11:32:00,68.2,58.8,30.07,NNW,333,0.0,10.0,72,0.00,,,0.00,Wunderground v.1.15,2013-03-13 15:32:00,
2013-03-13 11:33:00,68.2,58.8,30.07,NNW,333,7.0,10.0,72,0.00,,,0.00,Wunderground v.1.15,2013-03-13 15:33:00,
2013-03-13 11:35:00,68.1,58.3,30.07,NW,309,1.0,12.0,71,0.00,,,0.00,Wunderground v.1.15,2013-03-13 15:35:00,
2013-03-13 11:36:00,68.0,58.2,30.07,WNW,298,6.0,12.0,71,0.00,,,0.00,Wunderground v.1.15,2013-03-13 15:36:00,
2013-03-13 11:37:00,68.0,58.6,30.08,NNW,340,6.0,12.0,72,0.00,,,0.00,Wunderground v.1.15,2013-03-13 15:37:00,
2013-03-13 11:39:00,67.8,58.8,30.07,NW,312,9.0,12.0,73,0.00,,,0.00,Wunderground v.1.15,2013-03-13 15:39:00,
2013-03-13 11:41:00,67.8,58.4,30.07,NNE,13,0.0,7.0,72,0.00,,,0.00,Wunderground v.1.15,2013-03-13 15:41:00,
2013-03-13 11:43:00,67.8,58.4,30.07,NNW,346,0.0,7.0,72,0.00,,,0.00,Wunderground v.1.15,2013-03-13 15:43:00,
2013-03-13 11:45:00,67.7,58.3,30.08,NNW,336,4.0,7.0,72,0.00,,,0.00,Wunderground v.1.15,2013-03-13 15:45:00,
2013-03-13 11:47:00,67.5,58.2,30.07,North,355,7.0,9.0,72,0.00,,,0.00,Wunderground v.1.15,2013-03-13 15:47:00,
2013-03-13 11:48:00,67.5,58.2,30.07,North,9,1.0,9.0,72,0.00,,,0.00,Wunderground v.1.15,2013-03-13 15:48:00,
2013-03-13 11:50:00,68.0,59.0,30.07,North,360,2.0,3.0,73,0.00,,,0.00,Wunderground v.1.15,2013-03-13 15:50:00,
2013-03-13 11:53:00,68.6,59.2,30.07,North,9,0.0,6.0,72,0.00,,,0.00,Wunderground v.1.15,2013-03-13 15:53:00,
2013-03-13 11:55:00,69.0,60.0,30.07,NNW,336,0.0,6.0,73,0.00,,,0.00,Wunderground v.1.15,2013-03-13 15:55:00,
2013-03-13 11:58:00,70.1,60.7,30.08,NNW,329,2.0,6.0,72,0.00,,,0.00,Wunderground v.1.15,2013-03-13 15:58:00,
2013-03-13 11:59:00,70.3,59.2,30.07,NW,323,2.0,7.0,68,0.00,,,0.00,Wunderground v.1.15,2013-03-13 15:59:00,
2013-03-13 12:00:00,70.2,59.1,30.07,NW,322,7.0,8.0,68,0.00,,,0.00,Wunderground v.1.15,2013-03-13 16:00:00,
2013-03-13 12:03:00,69.9,59.3,30.07,NNW,348,1.0,9.0,69,0.00,,,0.00,Wunderground v.1.15,2013-03-13 16:03:00,
2013-03-13 12:04:00,69.9,59.7,30.07,North,355,0.0,9.0,70,0.00,,,0.00,Wunderground v.1.15,2013-03-13 16:04:00,
2013-03-13 12:05:00,70.0,59.4,30.07,NW,309,7.0,9.0,69,0.00,,,0.00,Wunderground v.1.15,2013-03-13 16:05:00,
2013-03-13 12:09:00,70.4,60.1,30.08,NNW,334,1.0,9.0,70,0.00,,,0.00,Wunderground v.1.15,2013-03-13 16:09:00,
2013-03-13 12:10:00,70.4,59.7,30.08,NNW,341,8.0,8.0,69,0.00,,,0.00,Wunderground v.1.15,2013-03-13 16:10:00,
2013-03-13 12:14:00,69.7,58.7,30.07,NW,320,2.0,11.0,68,0.00,,,0.00,Wunderground v.1.15,2013-03-13 16:14:00,
2013-03-13 12:15:00,69.7,59.5,30.07,NNE,12,0.0,11.0,70,0.00,,,0.00,Wunderground v.1.15,2013-03-13 16:15:00,
2013-03-13 12:16:00,70.0,60.2,30.07,North,360,5.0,11.0,71,0.00,,,0.00,Wunderground v.1.15,2013-03-13 16:16:00,
2013-03-13 12:20:00,71.1,60.4,30.07,NW,306,1.0,9.0,69,0.00,,,0.00,Wunderground v.1.15,2013-03-13 16:20:00,
2013-03-13 12:21:00,71.4,60.7,30.07,NW,306,7.0,10.0,69,0.00,,,0.00,Wunderground v.1.15,2013-03-13 16:21:00,
2013-03-13 12:22:00,71.5,60.0,30.07,NW,306,1.0,10.0,67,0.00,,,0.00,Wunderground v.1.15,2013-03-13 16:22:00,
2013-03-13 12:25:00,71.3,59.8,30.07,North,355,9.0,12.0,67,0.00,,,0.00,Wunderground v.1.15,2013-03-13 16:25:00,
2013-03-13 12:26:00,71.3,59.8,30.07,NW,309,3.0,12.0,67,0.00,,,0.00,Wunderground v.1.15,2013-03-13 16:26:00,
2013-03-13 12:27:00,71.3,60.2,30.07,NW,323,5.0,12.0,68,0.00,,,0.00,Wunderground v.1.15,2013-03-13 16:27:00,
2013-03-13 12:28:00,71.4,59.9,30.07,NW,319,0.0,12.0,67,0.00,,,0.00,Wunderground v.1.15,2013-03-13 16:28:00,
2013-03-13 12:30:00,71.6,60.1,30.07,NNE,14,7.0,7.0,67,0.00,,,0.00,Wunderground v.1.15,2013-03-13 16:30:00,
2013-03-13 12:32:00,71.7,60.6,30.07,NNW,341,5.0,7.0,68,0.00,,,0.00,Wunderground v.1.15,2013-03-13 16:32:00,
2013-03-13 12:33:00,71.9,59.9,30.07,North,355,7.0,7.0,66,0.00,,,0.00,Wunderground v.1.15,2013-03-13 16:33:00,
2013-03-13 12:35:00,72.0,60.4,30.07,North,360,2.0,11.0,67,0.00,,,0.00,Wunderground v.1.15,2013-03-13 16:35:00,
2013-03-13 12:37:00,72.2,60.2,30.07,NNW,330,6.0,11.0,66,0.00,,,0.00,Wunderground v.1.15,2013-03-13 16:37:00,
2013-03-13 12:38:00,72.2,59.8,30.07,North,5,0.0,11.0,65,0.00,,,0.00,Wunderground v.1.15,2013-03-13 16:38:00,
2013-03-13 12:39:00,72.1,59.7,30.07,NW,323,1.0,11.0,65,0.00,,,0.00,Wunderground v.1.15,2013-03-13 16:39:00,
2013-03-13 12:40:00,71.9,59.9,30.07,NW,319,1.0,4.0,66,0.00,,,0.00,Wunderground v.1.15,2013-03-13 16:40:00,
2013-03-13 12:42:00,71.9,59.5,30.07,North,360,0.0,15.0,65,0.00,,,0.00,Wunderground v.1.15,2013-03-13 16:42:00,
2013-03-13 12:43:00,71.9,59.1,30.07,North,355,0.0,15.0,64,0.00,,,0.00,Wunderground v.1.15,2013-03-13 16:43:00,
2013-03-13 12:44:00,71.8,59.4,30.07,NNW,347,1.0,15.0,65,0.00,,,0.00,Wunderground v.1.15,2013-03-13 16:44:00,
2013-03-13 12:45:00,72.0,60.4,30.07,NNW,343,0.0,15.0,67,0.00,,,0.00,Wunderground v.1.15,2013-03-13 16:45:00,
2013-03-13 12:48:00,72.6,59.7,30.07,North,360,0.0,15.0,64,0.00,,,0.00,Wunderground v.1.15,2013-03-13 16:48:00,
2013-03-13 12:49:00,72.6,59.7,30.07,North,360,6.0,15.0,64,0.00,,,0.00,Wunderground v.1.15,2013-03-13 16:49:00,
2013-03-13 12:50:00,72.5,59.6,30.07,NW,319,7.0,7.0,64,0.00,,,0.00,Wunderground v.1.15,2013-03-13 16:50:00,
2013-03-13 12:54:00,72.7,60.3,30.07,NNE,15,2.0,9.0,65,0.00,,,0.00,Wunderground v.1.15,2013-03-13 16:54:00,
2013-03-13 12:55:00,72.8,60.3,30.07,NNE,28,0.0,9.0,65,0.00,,,0.00,Wunderground v.1.15,2013-03-13 16:55:00,
2013-03-13 12:59:00,73.1,60.2,30.06,NW,315,0.0,9.0,64,0.00,,,0.00,Wunderground v.1.15,2013-03-13 16:59:00,
2013-03-13 13:03:00,73.8,60.0,30.07,North,360,0.0,13.0,62,0.00,,,0.00,Wunderground v.1.15,2013-03-13 17:03:00,
2013-03-13 13:04:00,73.7,60.3,30.06,NNE,14,1.0,13.0,63,0.00,,,0.00,Wunderground v.1.15,2013-03-13 17:04:00,
2013-03-13 13:05:00,73.7,60.3,30.06,NNE,26,0.0,13.0,63,0.00,,,0.00,Wunderground v.1.15,2013-03-13 17:05:00,
2013-03-13 13:08:00,73.3,59.9,30.06,North,355,4.0,13.0,63,0.00,,,0.00,Wunderground v.1.15,2013-03-13 17:08:00,
2013-03-13 13:09:00,73.2,60.3,30.06,NNW,331,3.0,13.0,64,0.00,,,0.00,Wunderground v.1.15,2013-03-13 17:09:00,
2013-03-13 13:10:00,73.2,60.3,30.06,NNW,328,4.0,4.0,64,0.00,,,0.00,Wunderground v.1.15,2013-03-13 17:10:00,
2013-03-13 13:14:00,73.9,59.6,30.06,North,355,1.0,12.0,61,0.00,,,0.00,Wunderground v.1.15,2013-03-13 17:14:00,
2013-03-13 13:15:00,74.1,59.8,30.06,NNW,333,0.0,12.0,61,0.00,,,0.00,Wunderground v.1.15,2013-03-13 17:15:00,
2013-03-13 13:19:00,74.8,58.5,30.06,NNW,344,10.0,13.0,57,0.00,,,0.00,Wunderground v.1.15,2013-03-13 17:19:00,
2013-03-13 13:20:00,74.7,58.0,30.06,North,355,5.0,8.0,56,0.00,,,0.00,Wunderground v.1.15,2013-03-13 17:20:00,
2013-03-13 13:21:00,74.6,58.4,30.06,NNE,26,7.0,8.0,57,0.00,,,0.00,Wunderground v.1.15,2013-03-13 17:21:00,
2013-03-13 13:24:00,74.7,58.5,30.05,North,5,0.0,8.0,57,0.00,,,0.00,Wunderground v.1.15,2013-03-13 17:24:00,
2013-03-13 13:26:00,74.8,59.5,30.06,NE,39,7.0,9.0,59,0.00,,,0.00,Wunderground v.1.15,2013-03-13 17:26:00,
2013-03-13 13:27:00,74.9,58.6,30.05,North,355,7.0,9.0,57,0.00,,,0.00,Wunderground v.1.15,2013-03-13 17:27:00,
2013-03-13 13:29:00,74.8,57.5,30.05,NNW,341,9.0,11.0,55,0.00,,,0.00,Wunderground v.1.15,2013-03-13 17:29:00,
2013-03-13 13:31:00,74.8,57.5,30.05,NNW,333,1.0,6.0,55,0.00,,,0.00,Wunderground v.1.15,2013-03-13 17:31:00,
2013-03-13 13:32:00,74.8,57.0,30.05,NNW,332,3.0,11.0,54,0.00,,,0.00,Wunderground v.1.15,2013-03-13 17:32:00,
2013-03-13 13:34:00,74.9,57.1,30.05,NNW,338,1.0,11.0,54,0.00,,,0.00,Wunderground v.1.15,2013-03-13 17:34:00,
2013-03-13 13:37:00,75.1,57.8,30.05,NNW,344,2.0,11.0,55,0.00,,,0.00,Wunderground v.1.15,2013-03-13 17:37:00,
2013-03-13 13:38:00,75.3,57.5,30.05,NNW,338,7.0,11.0,54,0.00,,,0.00,Wunderground v.1.15,2013-03-13 17:38:00,
2013-03-13 13:40:00,75.6,57.8,30.05,North,360,5.0,10.0,54,0.00,,,0.00,Wunderground v.1.15,2013-03-13 17:40:00,
2013-03-13 13:42:00,75.6,58.3,30.05,North,5,5.0,10.0,55,0.00,,,0.00,Wunderground v.1.15,2013-03-13 17:42:00,
2013-03-13 13:43:00,75.7,57.9,30.05,North,9,7.0,10.0,54,0.00,,,0.00,Wunderground v.1.15,2013-03-13 17:43:00,
2013-03-13 13:44:00,75.6,55.6,30.05,NNE,19,12.0,12.0,50,0.00,,,0.00,Wunderground v.1.15,2013-03-13 17:44:00,
2013-03-13 13:45:00,75.3,56.5,30.05,North,350,0.0,12.0,52,0.00,,,0.00,Wunderground v.1.15,2013-03-13 17:45:00,
2013-03-13 13:47:00,74.9,56.6,30.05,NW,315,1.0,12.0,53,0.00,,,0.00,Wunderground v.1.15,2013-03-13 17:47:00,
2013-03-13 13:49:00,74.9,57.1,30.05,NNE,22,6.0,12.0,54,0.00,,,0.00,Wunderground v.1.15,2013-03-13 17:49:00,
2013-03-13 13:50:00,74.9,56.6,30.05,North,11,5.0,5.0,53,0.00,,,0.00,Wunderground v.1.15,2013-03-13 17:50:00,
2013-03-13 13:51:00,74.8,58.1,30.05,NNW,343,1.0,5.0,56,0.00,,,0.00,Wunderground v.1.15,2013-03-13 17:51:00,
2013-03-13 13:53:00,75.2,57.4,30.05,North,5,7.0,9.0,54,0.00,,,0.00,Wunderground v.1.15,2013-03-13 17:53:00,
2013-03-13 13:54:00,75.2,57.4,30.04,NNW,329,7.0,12.0,54,0.00,,,0.00,Wunderground v.1.15,2013-03-13 17:54:00,
2013-03-13 13:55:00,75.2,57.4,30.04,NNW,338,6.0,12.0,54,0.00,,,0.00,Wunderground v.1.15,2013-03-13 17:55:00,
2013-03-13 13:56:00,75.1,57.8,30.04,West,270,7.0,12.0,55,0.00,,,0.00,Wunderground v.1.15,2013-03-13 17:56:00,
2013-03-13 13:58:00,75.0,55.6,30.04,NW,318,0.0,12.0,51,0.00,,,0.00,Wunderground v.1.15,2013-03-13 17:58:00,
2013-03-13 14:00:00,75.4,57.6,30.04,North,350,6.0,8.0,54,0.00,,,0.00,Wunderground v.1.15,2013-03-13 18:00:00,
2013-03-13 14:01:00,75.5,58.2,30.04,NNW,343,7.0,8.0,55,0.00,,,0.00,Wunderground v.1.15,2013-03-13 18:01:00,
2013-03-13 14:03:00,76.0,60.2,30.04,NNW,343,5.0,8.0,58,0.00,,,0.00,Wunderground v.1.15,2013-03-13 18:03:00,
2013-03-13 14:05:00,76.7,59.3,30.04,North,5,0.0,9.0,55,0.00,,,0.00,Wunderground v.1.15,2013-03-13 18:05:00,
2013-03-13 14:06:00,76.9,60.0,30.04,NNW,331,6.0,9.0,56,0.00,,,0.00,Wunderground v.1.15,2013-03-13 18:06:00,
2013-03-13 14:07:00,76.9,61.0,30.04,ENE,63,1.0,9.0,58,0.00,,,0.00,Wunderground v.1.15,2013-03-13 18:07:00,
2013-03-13 14:09:00,77.0,58.6,30.04,North,360,7.0,9.0,53,0.00,,,0.00,Wunderground v.1.15,2013-03-13 18:09:00,
2013-03-13 14:11:00,76.7,59.8,30.04,North,355,1.0,5.0,56,0.00,,,0.00,Wunderground v.1.15,2013-03-13 18:11:00,
2013-03-13 14:12:00,76.7,59.3,30.04,NE,44,1.0,5.0,55,0.00,,,0.00,Wunderground v.1.15,2013-03-13 18:12:00,
2013-03-13 14:14:00,76.7,60.3,30.04,NNE,19,6.0,7.0,57,0.00,,,0.00,Wunderground v.1.15,2013-03-13 18:14:00,
2013-03-13 14:16:00,76.7,58.3,30.03,NNE,25,0.0,9.0,53,0.00,,,0.00,Wunderground v.1.15,2013-03-13 18:16:00,
2013-03-13 14:17:00,76.6,58.2,30.03,North,11,0.0,9.0,53,0.00,,,0.00,Wunderground v.1.15,2013-03-13 18:17:00,
2013-03-13 14:19:00,76.5,58.1,30.03,North,355,9.0,15.0,53,0.00,,,0.00,Wunderground v.1.15,2013-03-13 18:19:00,
2013-03-13 14:22:00,76.3,56.8,30.03,NNW,336,8.0,13.0,51,0.00,,,0.00,Wunderground v.1.15,2013-03-13 18:22:00,
2013-03-13 14:23:00,76.2,57.3,30.03,NW,321,7.0,13.0,52,0.00,,,0.00,Wunderground v.1.15,2013-03-13 18:23:00,
2013-03-13 14:24:00,76.1,57.2,30.03,NW,314,0.0,13.0,52,0.00,,,0.00,Wunderground v.1.15,2013-03-13 18:24:00,
2013-03-13 14:27:00,76.1,57.7,30.03,NNW,345,3.0,13.0,53,0.00,,,0.00,Wunderground v.1.15,2013-03-13 18:27:00,
2013-03-13 14:28:00,76.1,58.2,30.03,North,5,5.0,13.0,54,0.00,,,0.00,Wunderground v.1.15,2013-03-13 18:28:00,
2013-03-13 14:31:00,76.1,57.2,30.03,NE,46,4.0,10.0,52,0.00,,,0.00,Wunderground v.1.15,2013-03-13 18:31:00,
2013-03-13 14:32:00,75.9,57.0,30.03,NNW,333,4.0,10.0,52,0.00,,,0.00,Wunderground v.1.15,2013-03-13 18:32:00,
2013-03-13 14:33:00,75.7,56.8,30.03,North,360,1.0,10.0,52,0.00,,,0.00,Wunderground v.1.15,2013-03-13 18:33:00,
2013-03-13 14:36:00,75.7,57.9,30.03,North,355,6.0,10.0,54,0.00,,,0.00,Wunderground v.1.15,2013-03-13 18:36:00,
2013-03-13 14:37:00,75.9,57.5,30.03,North,5,7.0,10.0,53,0.00,,,0.00,Wunderground v.1.15,2013-03-13 18:37:00,
2013-03-13 14:38:00,75.9,57.5,30.03,North,355,2.0,10.0,53,0.00,,,0.00,Wunderground v.1.15,2013-03-13 18:38:00,
2013-03-13 14:39:00,76.0,57.6,30.03,North,355,9.0,10.0,53,0.00,,,0.00,Wunderground v.1.15,2013-03-13 18:39:00,
2013-03-13 14:42:00,76.0,59.2,30.02,North,355,8.0,8.0,56,0.00,,,0.00,Wunderground v.1.15,2013-03-13 18:42:00,
2013-03-13 14:43:00,76.0,58.7,30.03,NNE,13,9.0,11.0,55,0.00,,,0.00,Wunderground v.1.15,2013-03-13 18:43:00,
2013-03-13 14:44:00,75.9,58.1,30.02,North,355,8.0,11.0,54,0.00,,,0.00,Wunderground v.1.15,2013-03-13 18:44:00,
2013-03-13 14:48:00,75.7,57.4,30.02,NNW,346,5.0,11.0,53,0.00,,,0.00,Wunderground v.1.15,2013-03-13 18:48:00,
2013-03-13 14:49:00,75.7,58.4,30.02,North,351,0.0,11.0,55,0.00,,,0.00,Wunderground v.1.15,2013-03-13 18:49:00,
2013-03-13 14:50:00,75.7,58.9,30.02,NNW,338,1.0,11.0,56,0.00,,,0.00,Wunderground v.1.15,2013-03-13 18:50:00,
2013-03-13 14:53:00,75.8,58.5,30.02,North,351,6.0,9.0,55,0.00,,,0.00,Wunderground v.1.15,2013-03-13 18:53:00,
2013-03-13 14:55:00,75.7,57.4,30.02,North,5,7.0,9.0,53,0.00,,,0.00,Wunderground v.1.15,2013-03-13 18:55:00,
2013-03-13 14:58:00,75.5,57.2,30.02,NNW,330,8.0,12.0,53,0.00,,,0.00,Wunderground v.1.15,2013-03-13 18:58:00,
2013-03-13 15:00:00,75.5,58.2,30.02,NNW,333,5.0,8.0,55,0.00,,,0.00,Wunderground v.1.15,2013-03-13 19:00:00,
2013-03-13 15:03:00,75.7,57.9,30.02,NW,315,5.0,8.0,54,0.00,,,0.00,Wunderground v.1.15,2013-03-13 19:03:00,
2013-03-13 15:04:00,75.7,57.4,30.02,North,360,9.0,9.0,53,0.00,,,0.00,Wunderground v.1.15,2013-03-13 19:04:00,
2013-03-13 15:06:00,75.9,57.5,30.02,North,355,4.0,10.0,53,0.00,,,0.00,Wunderground v.1.15,2013-03-13 19:06:00,
2013-03-13 15:09:00,76.1,58.2,30.02,NE,39,4.0,10.0,54,0.00,,,0.00,Wunderground v.1.15,2013-03-13 19:09:00,
2013-03-13 15:11:00,76.2,57.8,30.02,North,349,2.0,10.0,53,0.00,,,0.00,Wunderground v.1.15,2013-03-13 19:11:00,
2013-03-13 15:14:00,76.1,57.7,30.02,NNE,28,2.0,10.0,53,0.00,,,0.00,Wunderground v.1.15,2013-03-13 19:14:00,
2013-03-13 15:15:00,76.0,57.1,30.02,NNW,327,6.0,10.0,52,0.00,,,0.00,Wunderground v.1.15,2013-03-13 19:15:00,
2013-03-13 15:16:00,76.1,57.7,30.02,North,5,5.0,10.0,53,0.00,,,0.00,Wunderground v.1.15,2013-03-13 19:16:00,
2013-03-13 15:19:00,76.3,57.9,30.02,NNW,344,0.0,10.0,53,0.00,,,0.00,Wunderground v.1.15,2013-03-13 19:19:00,
2013-03-13 15:20:00,76.4,59.0,30.02,North,11,1.0,4.0,55,0.00,,,0.00,Wunderground v.1.15,2013-03-13 19:20:00,
2013-03-13 15:22:00,76.4,58.0,30.02,NNE,22,8.0,8.0,53,0.00,,,0.00,Wunderground v.1.15,2013-03-13 19:22:00,
2013-03-13 15:24:00,76.4,57.5,30.02,NW,322,13.0,19.0,52,0.00,,,0.00,Wunderground v.1.15,2013-03-13 19:24:00,
2013-03-13 15:25:00,76.4,58.0,30.02,NNW,336,10.0,19.0,53,0.00,,,0.00,Wunderground v.1.15,2013-03-13 19:25:00,
2013-03-13 15:27:00,76.3,57.9,30.02,NE,46,2.0,19.0,53,0.00,,,0.00,Wunderground v.1.15,2013-03-13 19:27:00,
2013-03-13 15:29:00,76.0,58.2,30.02,NNW,348,2.0,19.0,54,0.00,,,0.00,Wunderground v.1.15,2013-03-13 19:29:00,
2013-03-13 15:30:00,76.0,58.2,30.02,NNW,347,6.0,6.0,54,0.00,,,0.00,Wunderground v.1.15,2013-03-13 19:30:00,
2013-03-13 15:32:00,76.3,58.4,30.02,North,349,5.0,10.0,54,0.00,,,0.00,Wunderground v.1.15,2013-03-13 19:32:00,
2013-03-13 15:33:00,76.4,58.5,30.02,NNE,17,6.0,10.0,54,0.00,,,0.00,Wunderground v.1.15,2013-03-13 19:33:00,
2013-03-13 15:35:00,76.7,58.8,30.02,North,355,10.0,14.0,54,0.00,,,0.00,Wunderground v.1.15,2013-03-13 19:35:00,
2013-03-13 15:38:00,76.5,57.6,30.02,NNW,340,5.0,14.0,52,0.00,,,0.00,Wunderground v.1.15,2013-03-13 19:38:00,
2013-03-13 15:40:00,76.3,57.9,30.02,North,360,4.0,6.0,53,0.00,,,0.00,Wunderground v.1.15,2013-03-13 19:40:00,
2013-03-13 15:43:00,75.7,57.9,30.02,North,5,8.0,9.0,54,0.00,,,0.00,Wunderground v.1.15,2013-03-13 19:43:00,
2013-03-13 15:44:00,75.6,57.3,30.02,NNW,333,4.0,9.0,53,0.00,,,0.00,Wunderground v.1.15,2013-03-13 19:44:00,
2013-03-13 15:45:00,75.5,57.2,30.02,NNW,337,1.0,9.0,53,0.00,,,0.00,Wunderground v.1.15,2013-03-13 19:45:00,
2013-03-13 15:47:00,75.1,56.8,30.02,NE,38,7.0,9.0,53,0.00,,,0.00,Wunderground v.1.15,2013-03-13 19:47:00,
2013-03-13 15:48:00,75.1,56.8,30.02,NNE,24,1.0,11.0,53,0.00,,,0.00,Wunderground v.1.15,2013-03-13 19:48:00,
2013-03-13 15:50:00,75.2,57.9,30.02,NNW,342,0.0,4.0,55,0.00,,,0.00,Wunderground v.1.15,2013-03-13 19:50:00,
2013-03-13 15:52:00,75.8,58.5,30.01,NW,306,6.0,6.0,55,0.00,,,0.00,Wunderground v.1.15,2013-03-13 19:52:00,
2013-03-13 15:54:00,76.0,57.6,30.01,North,360,7.0,8.0,53,0.00,,,0.00,Wunderground v.1.15,2013-03-13 19:54:00,
2013-03-13 15:55:00,76.1,57.2,30.01,NNE,16,4.0,8.0,52,0.00,,,0.00,Wunderground v.1.15,2013-03-13 19:55:00,
2013-03-13 15:57:00,75.6,56.2,30.01,North,9,0.0,8.0,51,0.00,,,0.00,Wunderground v.1.15,2013-03-13 19:57:00,
2013-03-13 15:59:00,75.4,56.5,30.01,NNW,331,7.0,8.0,52,0.00,,,0.00,Wunderground v.1.15,2013-03-13 19:59:00,
2013-03-13 16:01:00,75.3,56.5,30.01,North,360,0.0,4.0,52,0.00,,,0.00,Wunderground v.1.15,2013-03-13 20:01:00,
2013-03-13 16:03:00,75.3,55.9,30.01,NW,325,5.0,5.0,51,0.00,,,0.00,Wunderground v.1.15,2013-03-13 20:03:00,
2013-03-13 16:04:00,75.5,56.6,30.01,NNE,22,4.0,6.0,52,0.00,,,0.00,Wunderground v.1.15,2013-03-13 20:04:00,
2013-03-13 16:06:00,75.6,55.6,30.01,North,360,5.0,6.0,50,0.00,,,0.00,Wunderground v.1.15,2013-03-13 20:06:00,
2013-03-13 16:07:00,75.5,55.6,30.01,North,360,6.0,8.0,50,0.00,,,0.00,Wunderground v.1.15,2013-03-13 20:07:00,
2013-03-13 16:08:00,75.4,56.0,30.01,North,9,0.0,9.0,51,0.00,,,0.00,Wunderground v.1.15,2013-03-13 20:08:00,
2013-03-13 16:09:00,75.3,55.4,30.01,NW,317,5.0,9.0,50,0.00,,,0.00,Wunderground v.1.15,2013-03-13 20:09:00,
2013-03-13 16:11:00,75.2,54.7,30.01,NNW,330,2.0,8.0,49,0.00,,,0.00,Wunderground v.1.15,2013-03-13 20:11:00,
2013-03-13 16:12:00,75.3,54.8,30.01,North,355,10.0,10.0,49,0.00,,,0.00,Wunderground v.1.15,2013-03-13 20:12:00,
2013-03-13 16:14:00,75.2,54.2,30.01,NW,320,5.0,10.0,48,0.00,,,0.00,Wunderground v.1.15,2013-03-13 20:14:00,
2013-03-13 16:15:00,75.2,54.7,30.01,North,360,6.0,10.0,49,0.00,,,0.00,Wunderground v.1.15,2013-03-13 20:15:00,
2013-03-13 16:16:00,75.1,54.6,30.01,North,10,7.0,10.0,49,0.00,,,0.00,Wunderground v.1.15,2013-03-13 20:16:00,
2013-03-13 16:17:00,75.1,53.5,30.01,NNW,337,6.0,10.0,47,0.00,,,0.00,Wunderground v.1.15,2013-03-13 20:17:00,
2013-03-13 16:20:00,74.7,53.7,30.01,NNW,331,6.0,6.0,48,0.00,,,0.00,Wunderground v.1.15,2013-03-13 20:20:00,
2013-03-13 16:22:00,74.7,54.8,30.01,North,350,7.0,7.0,50,0.00,,,0.00,Wunderground v.1.15,2013-03-13 20:22:00,
2013-03-13 16:25:00,75.3,53.7,30.01,NNW,340,4.0,9.0,47,0.00,,,0.00,Wunderground v.1.15,2013-03-13 20:25:00,
2013-03-13 16:26:00,75.3,54.3,30.01,NNW,341,2.0,9.0,48,0.00,,,0.00,Wunderground v.1.15,2013-03-13 20:26:00,
2013-03-13 16:27:00,75.5,54.4,30.01,NW,317,6.0,11.0,48,0.00,,,0.00,Wunderground v.1.15,2013-03-13 20:27:00,
2013-03-13 16:30:00,75.5,53.9,30.01,NNE,25,5.0,11.0,47,0.00,,,0.00,Wunderground v.1.15,2013-03-13 20:30:00,
2013-03-13 16:31:00,75.5,53.3,30.01,North,5,6.0,11.0,46,0.00,,,0.00,Wunderground v.1.15,2013-03-13 20:31:00,
2013-03-13 16:33:00,75.4,53.8,30.01,North,355,5.0,11.0,47,0.00,,,0.00,Wunderground v.1.15,2013-03-13 20:33:00,
2013-03-13 16:35:00,75.3,53.7,30.01,North,355,3.0,11.0,47,0.00,,,0.00,Wunderground v.1.15,2013-03-13 20:35:00,
2013-03-13 16:37:00,75.1,53.5,30.01,NNW,331,2.0,11.0,47,0.00,,,0.00,Wunderground v.1.15,2013-03-13 20:37:00,
2013-03-13 16:38:00,75.1,53.5,30.01,NW,315,1.0,11.0,47,0.00,,,0.00,Wunderground v.1.15,2013-03-13 20:38:00,
2013-03-13 16:42:00,75.1,54.1,30.01,NNW,336,7.0,9.0,48,0.00,,,0.00,Wunderground v.1.15,2013-03-13 20:42:00,
2013-03-13 16:43:00,74.9,52.7,30.01,NNW,338,8.0,11.0,46,0.00,,,0.00,Wunderground v.1.15,2013-03-13 20:43:00,
2013-03-13 16:44:00,74.9,53.3,30.01,NE,53,6.0,11.0,47,0.00,,,0.00,Wunderground v.1.15,2013-03-13 20:44:00,
2013-03-13 16:47:00,75.2,54.7,30.01,North,350,5.0,11.0,49,0.00,,,0.00,Wunderground v.1.15,2013-03-13 20:47:00,
2013-03-13 16:49:00,75.3,53.1,30.01,NNW,338,4.0,11.0,46,0.00,,,0.00,Wunderground v.1.15,2013-03-13 20:49:00,
2013-03-13 16:50:00,75.2,53.0,30.01,NNW,336,8.0,10.0,46,0.00,,,0.00,Wunderground v.1.15,2013-03-13 20:50:00,
2013-03-13 16:54:00,74.9,52.1,30.01,NW,315,8.0,10.0,45,0.00,,,0.00,Wunderground v.1.15,2013-03-13 20:54:00,
2013-03-13 16:55:00,74.9,52.1,30.01,NNW,341,0.0,10.0,45,0.00,,,0.00,Wunderground v.1.15,2013-03-13 20:55:00,
2013-03-13 17:01:00,74.9,52.1,30.01,North,360,2.0,8.0,45,0.00,,,0.00,Wunderground v.1.15,2013-03-13 21:01:00,
2013-03-13 17:02:00,74.9,50.3,30.01,North,5,7.0,8.0,42,0.00,,,0.00,Wunderground v.1.15,2013-03-13 21:02:00,
2013-03-13 17:06:00,74.7,50.7,30.01,NNE,13,1.0,8.0,43,0.00,,,0.00,Wunderground v.1.15,2013-03-13 21:06:00,
2013-03-13 17:07:00,74.7,49.4,30.01,NNW,340,6.0,8.0,41,0.00,,,0.00,Wunderground v.1.15,2013-03-13 21:07:00,
2013-03-13 17:08:00,74.6,50.6,30.01,North,349,1.0,8.0,43,0.00,,,0.00,Wunderground v.1.15,2013-03-13 21:08:00,
2013-03-13 17:11:00,74.4,49.2,30.01,NNE,28,0.0,6.0,41,0.00,,,0.00,Wunderground v.1.15,2013-03-13 21:11:00,
2013-03-13 17:12:00,74.4,49.2,30.01,NNE,28,0.0,6.0,41,0.00,,,0.00,Wunderground v.1.15,2013-03-13 21:12:00,
2013-03-13 17:13:00,74.4,50.4,30.01,North,360,0.0,6.0,43,0.00,,,0.00,Wunderground v.1.15,2013-03-13 21:13:00,
2013-03-13 17:17:00,74.6,50.6,30.01,NNE,28,0.0,7.0,43,0.00,,,0.00,Wunderground v.1.15,2013-03-13 21:17:00,
2013-03-13 17:18:00,74.6,49.3,30.01,NE,51,4.0,7.0,41,0.00,,,0.00,Wunderground v.1.15,2013-03-13 21:18:00,
2013-03-13 17:19:00,74.6,49.3,30.01,NE,51,0.0,7.0,41,0.00,,,0.00,Wunderground v.1.15,2013-03-13 21:19:00,
2013-03-13 17:23:00,74.5,49.2,30.00,NE,49,8.0,11.0,41,0.00,,,0.00,Wunderground v.1.15,2013-03-13 21:23:00,
2013-03-13 17:24:00,74.5,49.9,30.00,NE,44,0.0,11.0,42,0.00,,,0.00,Wunderground v.1.15,2013-03-13 21:24:00,
2013-03-13 17:28:00,74.6,51.2,30.00,NNW,346,5.0,11.0,44,0.00,,,0.00,Wunderground v.1.15,2013-03-13 21:28:00,
2013-03-13 17:29:00,74.6,51.2,30.01,North,355,0.0,11.0,44,0.00,,,0.00,Wunderground v.1.15,2013-03-13 21:29:00,
2013-03-13 17:30:00,74.7,51.3,30.01,North,355,7.0,11.0,44,0.00,,,0.00,Wunderground v.1.15,2013-03-13 21:30:00,
2013-03-13 17:33:00,74.7,50.7,30.01,NW,315,0.0,12.0,43,0.00,,,0.00,Wunderground v.1.15,2013-03-13 21:33:00,
2013-03-13 17:35:00,74.5,49.9,30.00,NNE,23,1.0,12.0,42,0.00,,,0.00,Wunderground v.1.15,2013-03-13 21:35:00,
2013-03-13 17:36:00,74.4,49.8,30.00,NNE,19,0.0,12.0,42,0.00,,,0.00,Wunderground v.1.15,2013-03-13 21:36:00,
2013-03-13 17:39:00,74.3,50.4,30.00,NE,35,0.0,12.0,43,0.00,,,0.00,Wunderground v.1.15,2013-03-13 21:39:00,
2013-03-13 17:40:00,74.4,50.4,30.01,North,360,2.0,4.0,43,0.00,,,0.00,Wunderground v.1.15,2013-03-13 21:40:00,
2013-03-13 17:41:00,74.4,49.8,30.01,North,11,0.0,7.0,42,0.00,,,0.00,Wunderground v.1.15,2013-03-13 21:41:00,
2013-03-13 17:45:00,74.3,50.4,30.01,NNW,340,0.0,9.0,43,0.00,,,0.00,Wunderground v.1.15,2013-03-13 21:45:00,
2013-03-13 17:46:00,74.2,50.3,30.01,North,360,4.0,9.0,43,0.00,,,0.00,Wunderground v.1.15,2013-03-13 21:46:00,
2013-03-13 17:47:00,74.1,50.2,30.01,NNW,343,1.0,9.0,43,0.00,,,0.00,Wunderground v.1.15,2013-03-13 21:47:00,
2013-03-13 17:50:00,74.0,51.3,30.01,NNE,19,0.0,4.0,45,0.00,,,0.00,Wunderground v.1.15,2013-03-13 21:50:00,
2013-03-13 17:51:00,74.0,51.3,30.01,North,355,4.0,4.0,45,0.00,,,0.00,Wunderground v.1.15,2013-03-13 21:51:00,
2013-03-13 17:52:00,74.0,50.7,30.01,North,360,2.0,4.0,44,0.00,,,0.00,Wunderground v.1.15,2013-03-13 21:52:00,
2013-03-13 17:53:00,74.0,50.7,30.01,NW,325,3.0,4.0,44,0.00,,,0.00,Wunderground v.1.15,2013-03-13 21:53:00,
2013-03-13 17:56:00,73.9,50.6,30.01,NE,36,1.0,6.0,44,0.00,,,0.00,Wunderground v.1.15,2013-03-13 21:56:00,
2013-03-13 17:57:00,73.9,50.0,30.01,NNE,32,1.0,8.0,43,0.00,,,0.00,Wunderground v.1.15,2013-03-13 21:57:00,
2013-03-13 17:59:00,73.8,49.9,30.01,NE,44,5.0,8.0,43,0.00,,,0.00,Wunderground v.1.15,2013-03-13 21:59:00,
2013-03-13 18:01:00,73.7,50.4,30.01,NW,318,1.0,6.0,44,0.00,,,0.00,Wunderground v.1.15,2013-03-13 22:01:00,
2013-03-13 18:03:00,73.6,50.3,30.01,North,355,4.0,6.0,44,0.00,,,0.00,Wunderground v.1.15,2013-03-13 22:03:00,
2013-03-13 18:04:00,73.5,50.2,30.01,NNE,16,1.0,8.0,44,0.00,,,0.00,Wunderground v.1.15,2013-03-13 22:04:00,
2013-03-13 18:07:00,73.3,50.1,30.01,NW,311,2.0,8.0,44,0.00,,,0.00,Wunderground v.1.15,2013-03-13 22:07:00,
2013-03-13 18:08:00,73.3,50.7,30.01,North,360,3.0,8.0,45,0.00,,,0.00,Wunderground v.1.15,2013-03-13 22:08:00,
2013-03-13 18:09:00,73.3,50.7,30.01,NNE,13,5.0,8.0,45,0.00,,,0.00,Wunderground v.1.15,2013-03-13 22:09:00,
2013-03-13 18:12:00,73.2,50.6,30.01,NE,38,0.0,9.0,45,0.00,,,0.00,Wunderground v.1.15,2013-03-13 22:12:00,
2013-03-13 18:13:00,73.2,51.2,30.01,NE,38,0.0,9.0,46,0.00,,,0.00,Wunderground v.1.15,2013-03-13 22:13:00,
2013-03-13 18:14:00,73.1,51.7,30.01,North,5,0.0,9.0,47,0.00,,,0.00,Wunderground v.1.15,2013-03-13 22:14:00,
2013-03-13 18:18:00,73.2,51.2,30.01,NNE,13,0.0,9.0,46,0.00,,,0.00,Wunderground v.1.15,2013-03-13 22:18:00,
2013-03-13 18:19:00,73.2,51.8,30.01,North,5,7.0,9.0,47,0.00,,,0.00,Wunderground v.1.15,2013-03-13 22:19:00,
2013-03-13 18:24:00,73.0,51.6,30.01,North,5,0.0,8.0,47,0.00,,,0.00,Wunderground v.1.15,2013-03-13 22:24:00,
2013-03-13 18:25:00,73.0,52.1,30.01,North,5,0.0,8.0,48,0.00,,,0.00,Wunderground v.1.15,2013-03-13 22:25:00,
2013-03-13 18:29:00,72.8,52.5,30.01,North,5,0.0,8.0,49,0.00,,,0.00,Wunderground v.1.15,2013-03-13 22:29:00,
2013-03-13 18:30:00,72.8,52.5,30.01,North,11,0.0,2.0,49,0.00,,,0.00,Wunderground v.1.15,2013-03-13 22:30:00,
2013-03-13 18:31:00,72.8,52.5,30.02,NNE,33,0.0,4.0,49,0.00,,,0.00,Wunderground v.1.15,2013-03-13 22:31:00,
2013-03-13 18:34:00,72.6,51.8,30.02,North,360,2.0,8.0,48,0.00,,,0.00,Wunderground v.1.15,2013-03-13 22:34:00,
2013-03-13 18:35:00,72.5,51.7,30.02,NNE,15,5.0,8.0,48,0.00,,,0.00,Wunderground v.1.15,2013-03-13 22:35:00,
2013-03-13 18:36:00,72.4,51.6,30.02,North,351,0.0,8.0,48,0.00,,,0.00,Wunderground v.1.15,2013-03-13 22:36:00,
2013-03-13 18:37:00,72.4,52.2,30.02,NNE,28,1.0,8.0,49,0.00,,,0.00,Wunderground v.1.15,2013-03-13 22:37:00,
2013-03-13 18:40:00,72.1,51.9,30.02,North,5,0.0,2.0,49,0.00,,,0.00,Wunderground v.1.15,2013-03-13 22:40:00,
2013-03-13 18:42:00,72.0,51.8,30.02,NNW,347,0.0,7.0,49,0.00,,,0.00,Wunderground v.1.15,2013-03-13 22:42:00,
2013-03-13 18:43:00,71.9,51.7,30.02,North,350,0.0,7.0,49,0.00,,,0.00,Wunderground v.1.15,2013-03-13 22:43:00,
2013-03-13 18:45:00,71.7,51.5,30.02,NNE,28,0.0,7.0,49,0.00,,,0.00,Wunderground v.1.15,2013-03-13 22:45:00,
2013-03-13 18:47:00,71.4,51.8,30.02,NNE,26,0.0,7.0,50,0.00,,,0.00,Wunderground v.1.15,2013-03-13 22:47:00,
2013-03-13 18:48:00,71.3,51.7,30.02,NNE,26,0.0,7.0,50,0.00,,,0.00,Wunderground v.1.15,2013-03-13 22:48:00,
2013-03-13 18:49:00,71.2,51.6,30.02,NNE,26,0.0,7.0,50,0.00,,,0.00,Wunderground v.1.15,2013-03-13 22:49:00,
2013-03-13 18:50:00,70.9,51.3,30.02,North,11,1.0,1.0,50,0.00,,,0.00,Wunderground v.1.15,2013-03-13 22:50:00,
2013-03-13 18:53:00,70.6,51.6,30.02,North,9,0.0,2.0,51,0.00,,,0.00,Wunderground v.1.15,2013-03-13 22:53:00,
2013-03-13 18:54:00,70.5,51.5,30.02,North,9,0.0,2.0,51,0.00,,,0.00,Wunderground v.1.15,2013-03-13 22:54:00,
2013-03-13 18:55:00,70.4,51.4,30.02,North,9,0.0,2.0,51,0.00,,,0.00,Wunderground v.1.15,2013-03-13 22:55:00,
2013-03-13 18:58:00,70.1,51.1,30.02,North,9,0.0,2.0,51,0.00,,,0.00,Wunderground v.1.15,2013-03-13 22:58:00,
2013-03-13 18:59:00,70.0,51.0,30.03,North,9,2.0,2.0,51,0.00,,,0.00,Wunderground v.1.15,2013-03-13 22:59:00,
2013-03-13 19:00:00,70.0,51.6,30.03,North,10,0.0,0.0,52,0.00,,,0.00,Wunderground v.1.15,2013-03-13 23:00:00,
2013-03-13 19:02:00,69.8,49.8,30.03,North,10,0.0,2.0,49,0.00,,,0.00,Wunderground v.1.15,2013-03-13 23:02:00,
2013-03-13 19:03:00,69.8,50.3,30.03,North,10,0.0,2.0,50,0.00,,,0.00,Wunderground v.1.15,2013-03-13 23:03:00,
2013-03-13 19:05:00,69.7,49.7,30.02,NNE,13,0.0,2.0,49,0.00,,,0.00,Wunderground v.1.15,2013-03-13 23:05:00,
2013-03-13 19:09:00,69.6,48.5,30.02,NE,42,0.0,6.0,47,0.00,,,0.00,Wunderground v.1.15,2013-03-13 23:09:00,
2013-03-13 19:10:00,69.5,48.4,30.02,NE,42,0.0,0.0,47,0.00,,,0.00,Wunderground v.1.15,2013-03-13 23:10:00,
2013-03-13 19:15:00,69.4,48.3,30.03,NE,42,0.0,1.0,47,0.00,,,0.00,Wunderground v.1.15,2013-03-13 23:15:00,
2013-03-13 19:16:00,69.4,48.3,30.03,NE,42,2.0,3.0,47,0.00,,,0.00,Wunderground v.1.15,2013-03-13 23:16:00,
2013-03-13 19:17:00,69.4,48.3,30.02,NE,42,0.0,3.0,47,0.00,,,0.00,Wunderground v.1.15,2013-03-13 23:17:00,
2013-03-13 19:20:00,69.0,47.9,30.03,NE,42,0.0,0.0,47,0.00,,,0.00,Wunderground v.1.15,2013-03-13 23:20:00,
2013-03-13 19:21:00,69.0,47.9,30.03,NE,42,0.0,0.0,47,0.00,,,0.00,Wunderground v.1.15,2013-03-13 23:21:00,
2013-03-13 19:22:00,68.9,48.4,30.03,NE,42,0.0,0.0,48,0.00,,,0.00,Wunderground v.1.15,2013-03-13 23:22:00,
2013-03-13 19:24:00,68.6,48.1,30.03,NE,42,0.0,0.0,48,0.00,,,0.00,Wunderground v.1.15,2013-03-13 23:24:00,
2013-03-13 19:26:00,68.3,48.4,30.03,NE,42,0.0,0.0,49,0.00,,,0.00,Wunderground v.1.15,2013-03-13 23:26:00,
2013-03-13 19:27:00,68.1,48.2,30.03,NE,42,0.0,0.0,49,0.00,,,0.00,Wunderground v.1.15,2013-03-13 23:27:00,
2013-03-13 19:29:00,67.8,47.9,30.03,NE,42,0.0,0.0,49,0.00,,,0.00,Wunderground v.1.15,2013-03-13 23:29:00,
2013-03-13 19:31:00,67.6,47.8,30.03,NE,42,0.0,0.0,49,0.00,,,0.00,Wunderground v.1.15,2013-03-13 23:31:00,
2013-03-13 19:32:00,67.4,48.1,30.03,NE,42,0.0,0.0,50,0.00,,,0.00,Wunderground v.1.15,2013-03-13 23:32:00,
2013-03-13 19:34:00,67.3,47.5,30.03,NE,42,0.0,0.0,49,0.00,,,0.00,Wunderground v.1.15,2013-03-13 23:34:00,
2013-03-13 19:37:00,67.2,47.4,30.03,NE,42,0.0,0.0,49,0.00,,,0.00,Wunderground v.1.15,2013-03-13 23:37:00,
2013-03-13 19:38:00,67.2,47.4,30.03,NE,42,0.0,0.0,49,0.00,,,0.00,Wunderground v.1.15,2013-03-13 23:38:00,
2013-03-13 19:39:00,67.1,47.3,30.03,NE,42,0.0,0.0,49,0.00,,,0.00,Wunderground v.1.15,2013-03-13 23:39:00,
2013-03-13 19:43:00,66.8,47.6,30.03,NE,42,0.0,0.0,50,0.00,,,0.00,Wunderground v.1.15,2013-03-13 23:43:00,
2013-03-13 19:45:00,66.7,47.5,30.03,NE,42,0.0,0.0,50,0.00,,,0.00,Wunderground v.1.15,2013-03-13 23:45:00,
2013-03-13 19:48:00,66.4,47.2,30.03,NE,42,0.0,0.0,50,0.00,,,0.00,Wunderground v.1.15,2013-03-13 23:48:00,
2013-03-13 19:49:00,66.3,47.1,30.03,NE,42,0.0,0.0,50,0.00,,,0.00,Wunderground v.1.15,2013-03-13 23:49:00,
2013-03-13 19:50:00,66.3,47.6,30.03,NE,42,0.0,0.0,51,0.00,,,0.00,Wunderground v.1.15,2013-03-13 23:50:00,
2013-03-13 19:53:00,66.3,47.6,30.04,NE,42,0.0,0.0,51,0.00,,,0.00,Wunderground v.1.15,2013-03-13 23:53:00,
2013-03-13 19:54:00,66.2,47.5,30.04,NE,42,0.0,0.0,51,0.00,,,0.00,Wunderground v.1.15,2013-03-13 23:54:00,
2013-03-13 19:55:00,66.1,47.4,30.04,NE,42,0.0,0.0,51,0.00,,,0.00,Wunderground v.1.15,2013-03-13 23:55:00,
2013-03-13 19:58:00,65.5,47.4,30.04,NE,42,0.0,0.0,52,0.00,,,0.00,Wunderground v.1.15,2013-03-13 23:58:00,
2013-03-13 19:59:00,65.3,47.7,30.04,NE,42,0.0,0.0,53,0.00,,,0.00,Wunderground v.1.15,2013-03-13 23:59:00,
2013-03-13 20:01:00,64.9,47.9,30.04,NE,42,0.0,0.0,54,0.00,,,0.00,Wunderground v.1.15,2013-03-14 00:01:00,
2013-03-13 20:04:00,64.3,48.3,30.04,NE,42,0.0,0.0,56,0.00,,,0.00,Wunderground v.1.15,2013-03-14 00:04:00,
2013-03-13 20:05:00,64.0,48.5,30.04,NE,42,0.0,0.0,57,0.00,,,0.00,Wunderground v.1.15,2013-03-14 00:05:00,
2013-03-13 20:06:00,63.9,49.7,30.04,NE,42,0.0,0.0,60,0.00,,,0.00,Wunderground v.1.15,2013-03-14 00:06:00,
2013-03-13 20:10:00,63.9,51.5,30.04,NE,42,0.0,0.0,64,0.00,,,0.00,Wunderground v.1.15,2013-03-14 00:10:00,
2013-03-13 20:12:00,63.8,51.8,30.04,NE,42,0.0,0.0,65,0.00,,,0.00,Wunderground v.1.15,2013-03-14 00:12:00,
2013-03-13 20:15:00,63.8,50.5,30.04,NE,42,0.0,0.0,62,0.00,,,0.00,Wunderground v.1.15,2013-03-14 00:15:00,
2013-03-13 20:16:00,63.9,51.1,30.04,NE,42,0.0,0.0,63,0.00,,,0.00,Wunderground v.1.15,2013-03-14 00:16:00,
2013-03-13 20:17:00,63.8,50.1,30.04,NE,42,0.0,0.0,61,0.00,,,0.00,Wunderground v.1.15,2013-03-14 00:17:00,
2013-03-13 20:20:00,63.6,49.0,30.05,NE,42,0.0,0.0,59,0.00,,,0.00,Wunderground v.1.15,2013-03-14 00:20:00,
2013-03-13 20:21:00,63.6,49.0,30.05,NE,42,0.0,0.0,59,0.00,,,0.00,Wunderground v.1.15,2013-03-14 00:21:00,
2013-03-13 20:22:00,63.6,49.0,30.05,NE,42,0.0,0.0,59,0.00,,,0.00,Wunderground v.1.15,2013-03-14 00:22:00,
2013-03-13 20:26:00,63.3,49.2,30.05,NE,42,0.0,0.0,60,0.00,,,0.00,Wunderground v.1.15,2013-03-14 00:26:00,
2013-03-13 20:27:00,63.2,49.1,30.05,NE,42,0.0,0.0,60,0.00,,,0.00,Wunderground v.1.15,2013-03-14 00:27:00,
2013-03-13 20:31:00,62.8,49.6,30.05,NE,42,0.0,0.0,62,0.00,,,0.00,Wunderground v.1.15,2013-03-14 00:31:00,
2013-03-13 20:32:00,62.9,50.5,30.05,NE,42,0.0,0.0,64,0.00,,,0.00,Wunderground v.1.15,2013-03-14 00:32:00,
2013-03-13 20:34:00,63.0,51.5,30.04,NE,42,0.0,0.0,66,0.00,,,0.00,Wunderground v.1.15,2013-03-14 00:34:00,
2013-03-13 20:36:00,63.2,52.1,30.05,NE,42,0.0,0.0,67,0.00,,,0.00,Wunderground v.1.15,2013-03-14 00:36:00,
2013-03-13 20:37:00,63.3,52.2,30.05,NE,42,0.0,0.0,67,0.00,,,0.00,Wunderground v.1.15,2013-03-14 00:37:00,
2013-03-13 20:38:00,63.4,52.2,30.05,NE,42,0.0,0.0,67,0.00,,,0.00,Wunderground v.1.15,2013-03-14 00:38:00,
2013-03-13 20:39:00,63.4,52.2,30.05,NE,42,0.0,0.0,67,0.00,,,0.00,Wunderground v.1.15,2013-03-14 00:39:00,
2013-03-13 20:41:00,63.3,52.2,30.05,NE,42,0.0,0.0,67,0.00,,,0.00,Wunderground v.1.15,2013-03-14 00:41:00,
2013-03-13 20:43:00,63.3,52.2,30.06,NE,42,0.0,0.0,67,0.00,,,0.00,Wunderground v.1.15,2013-03-14 00:43:00,
2013-03-13 20:44:00,63.3,52.6,30.05,NE,42,0.0,0.0,68,0.00,,,0.00,Wunderground v.1.15,2013-03-14 00:44:00,
2013-03-13 20:47:00,63.3,52.6,30.05,NE,42,0.0,0.0,68,0.00,,,0.00,Wunderground v.1.15,2013-03-14 00:47:00,
2013-03-13 20:48:00,63.3,52.6,30.05,NE,42,0.0,0.0,68,0.00,,,0.00,Wunderground v.1.15,2013-03-14 00:48:00,
2013-03-13 20:51:00,63.2,52.5,30.05,NE,42,0.0,0.0,68,0.00,,,0.00,Wunderground v.1.15,2013-03-14 00:51:00,
2013-03-13 20:53:00,63.1,52.8,30.05,NE,42,0.0,0.0,69,0.00,,,0.00,Wunderground v.1.15,2013-03-14 00:53:00,
2013-03-13 20:54:00,63.1,52.8,30.05,NE,42,0.0,0.0,69,0.00,,,0.00,Wunderground v.1.15,2013-03-14 00:54:00,
2013-03-13 20:55:00,63.0,52.3,30.05,NE,42,0.0,0.0,68,0.00,,,0.00,Wunderground v.1.15,2013-03-14 00:55:00,
2013-03-13 20:56:00,62.9,52.6,30.05,NE,42,0.0,0.0,69,0.00,,,0.00,Wunderground v.1.15,2013-03-14 00:56:00,
2013-03-13 20:58:00,62.9,52.6,30.05,NE,42,0.0,0.0,69,0.00,,,0.00,Wunderground v.1.15,2013-03-14 00:58:00,
2013-03-13 20:59:00,62.9,52.6,30.05,NE,42,0.0,0.0,69,0.00,,,0.00,Wunderground v.1.15,2013-03-14 00:59:00,
2013-03-13 21:00:00,62.9,52.6,30.05,NE,42,0.0,0.0,69,0.00,,,0.00,Wunderground v.1.15,2013-03-14 01:00:00,
2013-03-13 21:01:00,62.7,52.0,30.05,NE,42,0.0,0.0,68,0.00,,,0.00,Wunderground v.1.15,2013-03-14 01:01:00,
2013-03-13 21:04:00,62.5,52.2,30.05,NE,42,0.0,0.0,69,0.00,,,0.00,Wunderground v.1.15,2013-03-14 01:04:00,
2013-03-13 21:05:00,62.3,52.0,30.05,NE,42,0.0,0.0,69,0.00,,,0.00,Wunderground v.1.15,2013-03-14 01:05:00,
2013-03-13 21:07:00,62.1,52.2,30.05,NE,42,0.0,0.0,70,0.00,,,0.00,Wunderground v.1.15,2013-03-14 01:07:00,
2013-03-13 21:09:00,62.0,52.1,30.05,NE,42,0.0,0.0,70,0.00,,,0.00,Wunderground v.1.15,2013-03-14 01:09:00,
2013-03-13 21:10:00,62.0,52.1,30.05,NE,42,0.0,0.0,70,0.00,,,0.00,Wunderground v.1.15,2013-03-14 01:10:00,
2013-03-13 21:13:00,62.2,52.3,30.06,NE,42,0.0,0.0,70,0.00,,,0.00,Wunderground v.1.15,2013-03-14 01:13:00,
2013-03-13 21:14:00,62.3,52.4,30.06,NE,42,0.0,0.0,70,0.00,,,0.00,Wunderground v.1.15,2013-03-14 01:14:00,
2013-03-13 21:15:00,62.2,51.9,30.06,NE,42,0.0,0.0,69,0.00,,,0.00,Wunderground v.1.15,2013-03-14 01:15:00,
2013-03-13 21:18:00,62.0,51.7,30.06,NE,42,0.0,0.0,69,0.00,,,0.00,Wunderground v.1.15,2013-03-14 01:18:00,
2013-03-13 21:19:00,61.8,51.5,30.06,NE,42,0.0,0.0,69,0.00,,,0.00,Wunderground v.1.15,2013-03-14 01:19:00,
2013-03-13 21:20:00,61.6,51.7,30.06,NE,42,0.0,0.0,70,0.00,,,0.00,Wunderground v.1.15,2013-03-14 01:20:00,
2013-03-13 21:21:00,61.6,51.7,30.06,NE,42,0.0,0.0,70,0.00,,,0.00,Wunderground v.1.15,2013-03-14 01:21:00,
2013-03-13 21:23:00,61.2,51.7,30.05,NE,42,0.0,0.0,71,0.00,,,0.00,Wunderground v.1.15,2013-03-14 01:23:00,
2013-03-13 21:24:00,60.9,51.4,30.06,NE,42,0.0,0.0,71,0.00,,,0.00,Wunderground v.1.15,2013-03-14 01:24:00,
2013-03-13 21:25:00,60.8,51.7,30.06,NE,42,0.0,0.0,72,0.00,,,0.00,Wunderground v.1.15,2013-03-14 01:25:00,
2013-03-13 21:27:00,60.7,51.6,30.06,NE,42,0.0,0.0,72,0.00,,,0.00,Wunderground v.1.15,2013-03-14 01:27:00,
2013-03-13 21:28:00,60.6,51.5,30.06,NE,42,0.0,0.0,72,0.00,,,0.00,Wunderground v.1.15,2013-03-14 01:28:00,
2013-03-13 21:30:00,60.5,51.8,30.06,NE,42,0.0,0.0,73,0.00,,,0.00,Wunderground v.1.15,2013-03-14 01:30:00,
2013-03-13 21:31:00,60.5,51.8,30.06,NE,42,0.0,0.0,73,0.00,,,0.00,Wunderground v.1.15,2013-03-14 01:31:00,
2013-03-13 21:32:00,60.4,51.7,30.06,NE,42,0.0,0.0,73,0.00,,,0.00,Wunderground v.1.15,2013-03-14 01:32:00,
2013-03-13 21:33:00,60.2,51.9,30.07,NE,42,0.0,0.0,74,0.00,,,0.00,Wunderground v.1.15,2013-03-14 01:33:00,
2013-03-13 21:36:00,59.7,51.8,30.07,NE,42,0.0,0.0,75,0.00,,,0.00,Wunderground v.1.15,2013-03-14 01:36:00,
2013-03-13 21:37:00,59.6,51.7,30.07,NE,42,0.0,0.0,75,0.00,,,0.00,Wunderground v.1.15,2013-03-14 01:37:00,
2013-03-13 21:38:00,59.4,51.8,30.07,NE,42,0.0,0.0,76,0.00,,,0.00,Wunderground v.1.15,2013-03-14 01:38:00,
2013-03-13 21:41:00,59.1,51.9,30.07,NE,42,0.0,0.0,77,0.00,,,0.00,Wunderground v.1.15,2013-03-14 01:41:00,
2013-03-13 21:42:00,59.0,51.8,30.07,NE,42,0.0,0.0,77,0.00,,,0.00,Wunderground v.1.15,2013-03-14 01:42:00,
2013-03-13 21:44:00,58.7,51.9,30.07,NE,42,0.0,0.0,78,0.00,,,0.00,Wunderground v.1.15,2013-03-14 01:44:00,
2013-03-13 21:47:00,58.5,52.0,30.07,NE,42,0.0,0.0,79,0.00,,,0.00,Wunderground v.1.15,2013-03-14 01:47:00,
2013-03-13 21:48:00,58.3,51.8,30.07,NE,42,0.0,0.0,79,0.00,,,0.00,Wunderground v.1.15,2013-03-14 01:48:00,
2013-03-13 21:49:00,58.2,51.7,30.07,NE,42,0.0,0.0,79,0.00,,,0.00,Wunderground v.1.15,2013-03-14 01:49:00,
2013-03-13 21:52:00,58.0,51.9,30.07,NE,42,0.0,0.0,80,0.00,,,0.00,Wunderground v.1.15,2013-03-14 01:52:00,
2013-03-13 21:53:00,57.9,51.8,30.07,NE,42,0.0,0.0,80,0.00,,,0.00,Wunderground v.1.15,2013-03-14 01:53:00,
2013-03-13 21:54:00,57.8,51.7,30.07,NE,42,0.0,0.0,80,0.00,,,0.00,Wunderground v.1.15,2013-03-14 01:54:00,
2013-03-13 21:57:00,57.8,51.7,30.08,NE,42,0.0,0.0,80,0.00,,,0.00,Wunderground v.1.15,2013-03-14 01:57:00,
2013-03-13 21:58:00,57.8,51.7,30.08,NE,42,0.0,0.0,80,0.00,,,0.00,Wunderground v.1.15,2013-03-14 01:58:00,
2013-03-13 22:01:00,57.7,51.9,30.07,NE,42,0.0,0.0,81,0.00,,,0.00,Wunderground v.1.15,2013-03-14 02:01:00,
2013-03-13 22:03:00,57.6,52.1,30.08,NE,42,0.0,0.0,82,0.00,,,0.00,Wunderground v.1.15,2013-03-14 02:03:00,
2013-03-13 22:04:00,57.5,52.0,30.08,NE,42,0.0,0.0,82,0.00,,,0.00,Wunderground v.1.15,2013-03-14 02:04:00,
2013-03-13 22:06:00,57.3,51.9,30.08,NE,42,0.0,0.0,82,0.00,,,0.00,Wunderground v.1.15,2013-03-14 02:06:00,
2013-03-13 22:08:00,57.2,51.8,30.08,NE,42,0.0,0.0,82,0.00,,,0.00,Wunderground v.1.15,2013-03-14 02:08:00,
2013-03-13 22:09:00,57.2,51.8,30.08,NE,42,0.0,0.0,82,0.00,,,0.00,Wunderground v.1.15,2013-03-14 02:09:00,
2013-03-13 22:12:00,57.2,51.8,30.08,NE,42,0.0,0.0,82,0.00,,,0.00,Wunderground v.1.15,2013-03-14 02:12:00,
2013-03-13 22:13:00,57.2,51.8,30.08,NE,42,0.0,0.0,82,0.00,,,0.00,Wunderground v.1.15,2013-03-14 02:13:00,
2013-03-13 22:14:00,57.2,51.8,30.08,NE,42,0.0,0.0,82,0.00,,,0.00,Wunderground v.1.15,2013-03-14 02:14:00,
2013-03-13 22:17:00,57.3,51.5,30.08,NE,42,0.0,0.0,81,0.00,,,0.00,Wunderground v.1.15,2013-03-14 02:17:00,
2013-03-13 22:19:00,57.3,51.5,30.09,NE,42,0.0,0.0,81,0.00,,,0.00,Wunderground v.1.15,2013-03-14 02:19:00,
2013-03-13 22:20:00,57.4,51.6,30.09,NE,42,0.0,0.0,81,0.00,,,0.00,Wunderground v.1.15,2013-03-14 02:20:00,
2013-03-13 22:22:00,57.5,51.4,30.09,NE,42,0.0,0.0,80,0.00,,,0.00,Wunderground v.1.15,2013-03-14 02:22:00,
2013-03-13 22:24:00,57.6,51.5,30.09,NE,42,0.0,0.0,80,0.00,,,0.00,Wunderground v.1.15,2013-03-14 02:24:00,
2013-03-13 22:25:00,57.7,51.6,30.09,NE,42,0.0,0.0,80,0.00,,,0.00,Wunderground v.1.15,2013-03-14 02:25:00,
2013-03-13 22:29:00,57.7,51.6,30.08,NE,42,0.0,0.0,80,0.00,,,0.00,Wunderground v.1.15,2013-03-14 02:29:00,
2013-03-13 22:31:00,57.6,51.5,30.08,NE,42,0.0,0.0,80,0.00,,,0.00,Wunderground v.1.15,2013-03-14 02:31:00,
2013-03-13 22:34:00,57.4,51.6,30.08,NE,42,0.0,0.0,81,0.00,,,0.00,Wunderground v.1.15,2013-03-14 02:34:00,
2013-03-13 22:35:00,57.4,51.6,30.08,NE,42,0.0,0.0,81,0.00,,,0.00,Wunderground v.1.15,2013-03-14 02:35:00,
2013-03-13 22:36:00,57.3,51.5,30.08,NE,42,0.0,0.0,81,0.00,,,0.00,Wunderground v.1.15,2013-03-14 02:36:00,
2013-03-13 22:37:00,57.3,51.5,30.08,NE,42,0.0,0.0,81,0.00,,,0.00,Wunderground v.1.15,2013-03-14 02:37:00,
2013-03-13 22:39:00,57.3,51.5,30.08,NE,42,0.0,0.0,81,0.00,,,0.00,Wunderground v.1.15,2013-03-14 02:39:00,
2013-03-13 22:40:00,57.4,51.6,30.08,NE,42,0.0,0.0,81,0.00,,,0.00,Wunderground v.1.15,2013-03-14 02:40:00,
2013-03-13 22:42:00,57.5,51.4,30.08,NE,42,0.0,0.0,80,0.00,,,0.00,Wunderground v.1.15,2013-03-14 02:42:00,
2013-03-13 22:44:00,57.6,51.1,30.08,NE,42,0.0,0.0,79,0.00,,,0.00,Wunderground v.1.15,2013-03-14 02:44:00,
2013-03-13 22:45:00,57.7,51.2,30.09,NE,42,0.0,0.0,79,0.00,,,0.00,Wunderground v.1.15,2013-03-14 02:45:00,
2013-03-13 22:47:00,57.7,51.2,30.09,NE,42,0.0,0.0,79,0.00,,,0.00,Wunderground v.1.15,2013-03-14 02:47:00,
2013-03-13 22:50:00,57.9,51.1,30.08,NE,42,0.0,0.0,78,0.00,,,0.00,Wunderground v.1.15,2013-03-14 02:50:00,
2013-03-13 22:53:00,58.0,51.2,30.09,NE,42,0.0,0.0,78,0.00,,,0.00,Wunderground v.1.15,2013-03-14 02:53:00,
2013-03-13 22:56:00,58.1,50.9,30.09,NE,42,0.0,0.0,77,0.00,,,0.00,Wunderground v.1.15,2013-03-14 02:56:00,
2013-03-13 22:57:00,58.1,51.3,30.09,NE,42,0.0,0.0,78,0.00,,,0.00,Wunderground v.1.15,2013-03-14 02:57:00,
2013-03-13 22:58:00,58.2,51.4,30.09,NE,42,0.0,0.0,78,0.00,,,0.00,Wunderground v.1.15,2013-03-14 02:58:00,
2013-03-13 23:01:00,58.2,51.4,30.09,NE,42,0.0,0.0,78,0.00,,,0.00,Wunderground v.1.15,2013-03-14 03:01:00,
2013-03-13 23:02:00,58.1,50.9,30.09,NE,42,0.0,0.0,77,0.00,,,0.00,Wunderground v.1.15,2013-03-14 03:02:00,
2013-03-13 23:03:00,58.0,50.8,30.09,NE,42,0.0,0.0,77,0.00,,,0.00,Wunderground v.1.15,2013-03-14 03:03:00,
2013-03-13 23:04:00,58.0,50.8,30.09,NE,42,0.0,0.0,77,0.00,,,0.00,Wunderground v.1.15,2013-03-14 03:04:00,
2013-03-13 23:07:00,57.9,51.4,30.09,NE,42,0.0,0.0,79,0.00,,,0.00,Wunderground v.1.15,2013-03-14 03:07:00,
2013-03-13 23:09:00,57.9,51.4,30.09,NE,42,0.0,0.0,79,0.00,,,0.00,Wunderground v.1.15,2013-03-14 03:09:00,
2013-03-13 23:10:00,57.9,51.4,30.09,NE,42,0.0,0.0,79,0.00,,,0.00,Wunderground v.1.15,2013-03-14 03:10:00,
2013-03-13 23:12:00,57.9,51.4,30.09,NE,42,0.0,0.0,79,0.00,,,0.00,Wunderground v.1.15,2013-03-14 03:12:00,
2013-03-13 23:13:00,57.8,51.3,30.09,NE,42,0.0,0.0,79,0.00,,,0.00,Wunderground v.1.15,2013-03-14 03:13:00,
2013-03-13 23:14:00,57.8,51.3,30.09,NE,42,0.0,0.0,79,0.00,,,0.00,Wunderground v.1.15,2013-03-14 03:14:00,
2013-03-13 23:15:00,57.8,51.3,30.09,NE,42,0.0,0.0,79,0.00,,,0.00,Wunderground v.1.15,2013-03-14 03:15:00,
2013-03-13 23:18:00,57.7,51.2,30.09,NE,42,0.0,0.0,79,0.00,,,0.00,Wunderground v.1.15,2013-03-14 03:18:00,
2013-03-13 23:19:00,57.7,51.2,30.09,NE,42,0.0,0.0,79,0.00,,,0.00,Wunderground v.1.15,2013-03-14 03:19:00,
2013-03-13 23:20:00,57.7,51.2,30.09,NE,42,0.0,0.0,79,0.00,,,0.00,Wunderground v.1.15,2013-03-14 03:20:00,
2013-03-13 23:23:00,57.5,51.4,30.09,NE,42,0.0,0.0,80,0.00,,,0.00,Wunderground v.1.15,2013-03-14 03:23:00,
2013-03-13 23:24:00,57.4,51.3,30.09,NE,42,0.0,0.0,80,0.00,,,0.00,Wunderground v.1.15,2013-03-14 03:24:00,
2013-03-13 23:25:00,57.3,51.2,30.09,NE,42,0.0,0.0,80,0.00,,,0.00,Wunderground v.1.15,2013-03-14 03:25:00,
2013-03-13 23:29:00,56.6,51.2,30.09,NE,42,0.0,0.0,82,0.00,,,0.00,Wunderground v.1.15,2013-03-14 03:29:00,
2013-03-13 23:30:00,56.4,51.0,30.09,NE,42,0.0,0.0,82,0.00,,,0.00,Wunderground v.1.15,2013-03-14 03:30:00,
2013-03-13 23:34:00,56.2,51.4,30.09,NE,42,0.0,0.0,84,0.00,,,0.00,Wunderground v.1.15,2013-03-14 03:34:00,
2013-03-13 23:35:00,56.1,51.3,30.09,NE,42,0.0,0.0,84,0.00,,,0.00,Wunderground v.1.15,2013-03-14 03:35:00,
2013-03-13 23:39:00,55.8,51.4,30.09,NE,42,0.0,0.0,85,0.00,,,0.00,Wunderground v.1.15,2013-03-14 03:39:00,
2013-03-13 23:40:00,55.7,51.3,30.09,NE,42,0.0,0.0,85,0.00,,,0.00,Wunderground v.1.15,2013-03-14 03:40:00,
2013-03-13 23:41:00,55.6,51.2,30.09,NE,42,0.0,0.0,85,0.00,,,0.00,Wunderground v.1.15,2013-03-14 03:41:00,
2013-03-13 23:45:00,55.3,51.2,30.09,NE,42,0.0,0.0,86,0.00,,,0.00,Wunderground v.1.15,2013-03-14 03:45:00,
2013-03-13 23:46:00,55.2,51.1,30.09,NE,42,0.0,0.0,86,0.00,,,0.00,Wunderground v.1.15,2013-03-14 03:46:00,
2013-03-13 23:47:00,55.1,51.0,30.09,NE,42,0.0,0.0,86,0.00,,,0.00,Wunderground v.1.15,2013-03-14 03:47:00,
2013-03-13 23:50:00,54.9,51.1,30.09,NE,42,0.0,0.0,87,0.00,,,0.00,Wunderground v.1.15,2013-03-14 03:50:00,
2013-03-13 23:51:00,54.9,51.1,30.09,NE,42,0.0,0.0,87,0.00,,,0.00,Wunderground v.1.15,2013-03-14 03:51:00,
2013-03-13 23:52:00,54.8,51.0,30.09,NE,42,0.0,0.0,87,0.00,,,0.00,Wunderground v.1.15,2013-03-14 03:52:00,
2013-03-13 23:57:00,54.8,51.0,30.09,NE,42,0.0,0.0,87,0.00,,,0.00,Wunderground v.1.15,2013-03-14 03:57:00,
2013-03-13 23:58:00,54.9,51.4,30.09,NE,42,0.0,0.0,88,0.00,,,0.00,Wunderground v.1.15,2013-03-14 03:58:00,